Wetterdaten: Montag, 22.03.2021
Datum Zeit Temp. Aussen Temp. o. S. Temp +5cm Feuchte Auss Luftdruck Regen Sonnenschein Regendauer Solar Windben Empfang
22.03.2021 00:00 5,0 C 4,4 C 2,3 C 84 % 1024,6 hPa 0,0 l/m 0 min 0 min 0 W/m 16,1 km/h (3 Bft) 95,74 %
22.03.2021 00:02 5,0 C 4,4 C 2,3 C 84 % 1024,6 hPa 0,0 l/m 0 min 0 min 0 W/m 9,7 km/h (2 Bft) 95,65 %
22.03.2021 00:04 5,0 C 4,4 C 2,3 C 84 % 1024,6 hPa 0,0 l/m 0 min 0 min 0 W/m 9,7 km/h (2 Bft) 95,74 %
22.03.2021 00:08 5,0 C 4,4 C 2,3 C 84 % 1024,6 hPa 0,0 l/m 0 min 0 min 0 W/m 19,3 km/h (3 Bft) 97,65 %
22.03.2021 00:10 5,0 C 4,4 C 2,3 C 84 % 1024,5 hPa 0,0 l/m 0 min 0 min 0 W/m 12,9 km/h (3 Bft) 97,83 %
22.03.2021 00:12 5,0 C 4,4 C 2,3 C 84 % 1024,5 hPa 0,0 l/m 0 min 0 min 0 W/m 6,4 km/h (2 Bft) 97,87 %
22.03.2021 00:14 5,0 C 4,4 C 2,3 C 84 % 1024,5 hPa 0,0 l/m 0 min 0 min 0 W/m 9,7 km/h (2 Bft) 97,87 %
22.03.2021 00:16 5,0 C 4,4 C 2,3 C 84 % 1024,5 hPa 0,0 l/m 0 min 0 min 0 W/m 16,1 km/h (3 Bft) 95,74 %
22.03.2021 00:18 4,9 C 4,4 C 2,3 C 84 % 1024,6 hPa 0,0 l/m 0 min 0 min 0 W/m 9,7 km/h (2 Bft) 95,74 %
22.03.2021 00:20 4,9 C 4,4 C 2,3 C 84 % 1024,6 hPa 0,0 l/m 0 min 0 min 0 W/m 19,3 km/h (3 Bft) 97,87 %
22.03.2021 00:22 4,9 C 4,4 C 2,3 C 84 % 1024,7 hPa 0,0 l/m 0 min 0 min 0 W/m 19,3 km/h (3 Bft) 95,65 %
22.03.2021 00:24 4,9 C 4,4 C 2,3 C 84 % 1024,6 hPa 0,0 l/m 0 min 0 min 0 W/m 6,4 km/h (2 Bft) 95,74 %
22.03.2021 00:26 4,9 C 4,4 C 2,3 C 84 % 1024,5 hPa 0,0 l/m 0 min 0 min 0 W/m 9,7 km/h (2 Bft) 97,87 %
22.03.2021 00:28 4,9 C 4,4 C 2,3 C 84 % 1024,6 hPa 0,0 l/m 0 min 0 min 0 W/m 12,9 km/h (3 Bft) 97,87 %
22.03.2021 00:30 4,9 C 4,4 C 2,3 C 84 % 1024,6 hPa 0,0 l/m 0 min 0 min 0 W/m 9,7 km/h (2 Bft) 95,74 %
22.03.2021 00:32 4,9 C 4,4 C 2,3 C 84 % 1024,6 hPa 0,0 l/m 0 min 0 min 0 W/m 9,7 km/h (2 Bft) 95,74 %
22.03.2021 00:34 4,9 C 4,4 C 2,3 C 84 % 1024,6 hPa 0,0 l/m 0 min 0 min 0 W/m 12,9 km/h (3 Bft) 100,00 %
22.03.2021 00:36 4,9 C 4,4 C 2,3 C 84 % 1024,6 hPa 0,0 l/m 0 min 0 min 0 W/m 12,9 km/h (3 Bft) 97,87 %
22.03.2021 00:38 4,9 C 4,4 C 2,3 C 84 % 1024,6 hPa 0,0 l/m 0 min 0 min 0 W/m 3,2 km/h (1 Bft) 95,74 %
22.03.2021 00:40 4,9 C 3,9 C 2,3 C 84 % 1024,6 hPa 0,0 l/m 0 min 0 min 0 W/m 12,9 km/h (3 Bft) 97,87 %
22.03.2021 00:42 4,9 C 4,4 C 2,3 C 84 % 1024,7 hPa 0,0 l/m 0 min 0 min 0 W/m 6,4 km/h (2 Bft) 95,74 %
22.03.2021 00:44 4,9 C 4,4 C 2,3 C 84 % 1024,7 hPa 0,0 l/m 0 min 0 min 0 W/m 16,1 km/h (3 Bft) 97,87 %
22.03.2021 00:46 4,9 C 4,4 C 2,3 C 84 % 1024,7 hPa 0,0 l/m 0 min 0 min 0 W/m 16,1 km/h (3 Bft) 97,83 %
22.03.2021 00:48 4,8 C 4,4 C 2,3 C 84 % 1024,7 hPa 0,0 l/m 0 min 0 min 0 W/m 9,7 km/h (2 Bft) 95,74 %
22.03.2021 00:50 4,8 C 4,4 C 2,3 C 84 % 1024,7 hPa 0,0 l/m 0 min 0 min 0 W/m 12,9 km/h (3 Bft) 97,87 %
22.03.2021 00:52 4,8 C 4,4 C 2,3 C 84 % 1024,7 hPa 0,0 l/m 0 min 0 min 0 W/m 16,1 km/h (3 Bft) 97,87 %
22.03.2021 00:54 4,8 C 4,4 C 2,3 C 84 % 1024,6 hPa 0,0 l/m 0 min 0 min 0 W/m 9,7 km/h (2 Bft) 91,49 %
22.03.2021 00:56 4,8 C 4,4 C 2,3 C 84 % 1024,7 hPa 0,0 l/m 0 min 0 min 0 W/m 6,4 km/h (2 Bft) 97,87 %
22.03.2021 00:58 4,8 C 4,4 C 2,3 C 84 % 1024,6 hPa 0,0 l/m 0 min 0 min 0 W/m 12,9 km/h (3 Bft) 95,65 %
22.03.2021 01:00 4,8 C 4,4 C 2,3 C 84 % 1024,7 hPa 0,0 l/m 0 min 0 min 0 W/m 6,4 km/h (2 Bft) 95,74 %
22.03.2021 01:02 4,8 C 4,4 C 2,3 C 84 % 1024,6 hPa 0,0 l/m 0 min 0 min 0 W/m 6,4 km/h (2 Bft) 97,87 %
22.03.2021 01:04 4,8 C 4,4 C 2,3 C 84 % 1024,6 hPa 0,0 l/m 0 min 0 min 0 W/m 9,7 km/h (2 Bft) 97,87 %
22.03.2021 01:06 4,8 C 4,4 C 2,3 C 84 % 1024,6 hPa 0,0 l/m 0 min 0 min 0 W/m 9,7 km/h (2 Bft) 97,87 %
22.03.2021 01:08 4,8 C 4,4 C 2,3 C 84 % 1024,6 hPa 0,0 l/m 0 min 0 min 0 W/m 6,4 km/h (2 Bft) 97,87 %
22.03.2021 01:10 4,8 C 4,4 C 2,3 C 85 % 1024,5 hPa 0,0 l/m 0 min 0 min 0 W/m 6,4 km/h (2 Bft) 97,83 %
22.03.2021 01:12 4,8 C 4,4 C 2,3 C 85 % 1024,6 hPa 0,0 l/m 0 min 0 min 0 W/m 9,7 km/h (2 Bft) 97,87 %
22.03.2021 01:14 4,8 C 4,4 C 2,3 C 85 % 1024,6 hPa 0,0 l/m 0 min 0 min 0 W/m 6,4 km/h (2 Bft) 95,74 %
22.03.2021 01:16 4,8 C 4,4 C 2,3 C 85 % 1024,5 hPa 0,0 l/m 0 min 0 min 0 W/m 3,2 km/h (1 Bft) 97,87 %
22.03.2021 01:18 4,8 C 4,4 C 2,3 C 85 % 1024,5 hPa 0,0 l/m 0 min 0 min 0 W/m 6,4 km/h (2 Bft) 100,00 %
22.03.2021 01:20 4,8 C 3,9 C 2,3 C 85 % 1024,5 hPa 0,0 l/m 0 min 0 min 0 W/m 3,2 km/h (1 Bft) 100,00 %
22.03.2021 01:22 4,8 C 3,9 C 2,3 C 85 % 1024,6 hPa 0,0 l/m 0 min 0 min 0 W/m 3,2 km/h (1 Bft) 100,00 %
22.03.2021 01:24 4,8 C 3,9 C 2,3 C 85 % 1024,5 hPa 0,0 l/m 0 min 0 min 0 W/m 3,2 km/h (1 Bft) 100,00 %
22.03.2021 01:26 4,8 C 3,9 C 2,3 C 85 % 1024,5 hPa 0,0 l/m 0 min 0 min 0 W/m 3,2 km/h (1 Bft) 100,00 %
22.03.2021 01:28 4,8 C 3,9 C 2,3 C 86 % 1024,5 hPa 0,0 l/m 0 min 0 min 0 W/m 3,2 km/h (1 Bft) 100,00 %
22.03.2021 01:30 4,8 C 3,9 C 1,7 C 86 % 1024,4 hPa 0,0 l/m 0 min 0 min 0 W/m 3,2 km/h (1 Bft) 100,00 %
22.03.2021 01:32 4,7 C 3,9 C 1,7 C 86 % 1024,4 hPa 0,0 l/m 0 min 0 min 0 W/m 3,2 km/h (1 Bft) 100,00 %
22.03.2021 01:34 4,7 C 3,9 C 2,3 C 86 % 1024,4 hPa 0,0 l/m 0 min 0 min 0 W/m 3,2 km/h (1 Bft) 100,00 %
22.03.2021 01:36 4,7 C 3,9 C 1,7 C 86 % 1024,4 hPa 0,0 l/m 0 min 0 min 0 W/m 3,2 km/h (1 Bft) 100,00 %
22.03.2021 01:38 4,7 C 3,9 C 1,7 C 86 % 1024,4 hPa 0,0 l/m 0 min 0 min 0 W/m 6,4 km/h (2 Bft) 100,00 %
22.03.2021 01:40 4,6 C 3,9 C 1,7 C 86 % 1024,4 hPa 0,0 l/m 0 min 0 min 0 W/m 6,4 km/h (2 Bft) 97,37 %
22.03.2021 01:42 4,6 C 3,9 C 1,7 C 86 % 1024,4 hPa 0,0 l/m 0 min 0 min 0 W/m 0,0 km/h (0 Bft) 97,87 %
22.03.2021 01:44 4,6 C 3,9 C 1,7 C 86 % 1024,4 hPa 0,0 l/m 0 min 0 min 0 W/m 3,2 km/h (1 Bft) 97,87 %
22.03.2021 01:46 4,6 C 3,9 C 1,7 C 86 % 1024,4 hPa 0,0 l/m 0 min 0 min 0 W/m 6,4 km/h (2 Bft) 100,00 %
22.03.2021 01:48 4,6 C 3,9 C 1,7 C 86 % 1024,4 hPa 0,0 l/m 0 min 0 min 0 W/m 6,4 km/h (2 Bft) 100,00 %
22.03.2021 01:50 4,6 C 3,9 C 1,7 C 86 % 1024,4 hPa 0,0 l/m 0 min 0 min 0 W/m 6,4 km/h (2 Bft) 100,00 %
22.03.2021 01:52 4,6 C 3,9 C 1,7 C 87 % 1024,4 hPa 0,0 l/m 0 min 0 min 0 W/m 3,2 km/h (1 Bft) 97,87 %
22.03.2021 01:54 4,5 C 3,9 C 1,7 C 87 % 1024,4 hPa 0,0 l/m 0 min 0 min 0 W/m 9,7 km/h (2 Bft) 97,87 %
22.03.2021 01:56 4,5 C 3,9 C 1,7 C 87 % 1024,4 hPa 0,0 l/m 0 min 0 min 0 W/m 6,4 km/h (2 Bft) 97,83 %
22.03.2021 01:58 4,5 C 3,9 C 1,7 C 87 % 1024,4 hPa 0,0 l/m 0 min 0 min 0 W/m 3,2 km/h (1 Bft) 97,87 %
22.03.2021 02:00 4,5 C 3,9 C 1,7 C 87 % 1024,4 hPa 0,0 l/m 0 min 0 min 0 W/m 3,2 km/h (1 Bft) 97,87 %
22.03.2021 02:02 4,5 C 3,9 C 1,7 C 87 % 1024,4 hPa 0,0 l/m 0 min 0 min 0 W/m 6,4 km/h (2 Bft) 95,74 %
22.03.2021 02:04 4,5 C 3,9 C 1,7 C 87 % 1024,4 hPa 0,0 l/m 0 min 0 min 0 W/m 6,4 km/h (2 Bft) 95,83 %
22.03.2021 02:06 4,5 C 3,9 C 1,7 C 87 % 1024,4 hPa 0,0 l/m 0 min 0 min 0 W/m 9,7 km/h (2 Bft) 97,87 %
22.03.2021 02:08 4,5 C 3,9 C 1,7 C 87 % 1024,3 hPa 0,0 l/m 0 min 0 min 0 W/m 6,4 km/h (2 Bft) 97,83 %
22.03.2021 02:10 4,5 C 3,9 C 1,7 C 87 % 1024,3 hPa 0,0 l/m 0 min 0 min 0 W/m 9,7 km/h (2 Bft) 97,87 %
22.03.2021 02:12 4,4 C 3,9 C 1,7 C 87 % 1024,3 hPa 0,0 l/m 0 min 0 min 0 W/m 9,7 km/h (2 Bft) 95,74 %
22.03.2021 02:14 4,4 C 3,9 C 1,7 C 87 % 1024,2 hPa 0,0 l/m 0 min 0 min 0 W/m 16,1 km/h (3 Bft) 97,87 %
22.03.2021 02:16 4,4 C 3,3 C 1,7 C 87 % 1024,2 hPa 0,0 l/m 0 min 0 min 0 W/m 16,1 km/h (3 Bft) 95,74 %
22.03.2021 02:18 4,3 C 3,3 C 1,7 C 88 % 1024,2 hPa 0,0 l/m 0 min 0 min 0 W/m 9,7 km/h (2 Bft) 97,87 %
22.03.2021 02:20 4,3 C 3,3 C 1,1 C 87 % 1024,3 hPa 0,0 l/m 0 min 0 min 0 W/m 9,7 km/h (2 Bft) 97,83 %
22.03.2021 02:22 4,3 C 3,3 C 1,1 C 88 % 1024,3 hPa 0,0 l/m 0 min 0 min 0 W/m 9,7 km/h (2 Bft) 95,74 %
22.03.2021 02:24 4,2 C 3,3 C 1,1 C 88 % 1024,2 hPa 0,0 l/m 0 min 0 min 0 W/m 6,4 km/h (2 Bft) 97,87 %
22.03.2021 02:26 4,1 C 3,3 C 1,1 C 88 % 1024,2 hPa 0,0 l/m 0 min 0 min 0 W/m 9,7 km/h (2 Bft) 97,87 %
22.03.2021 02:28 4,1 C 3,3 C 1,1 C 88 % 1024,2 hPa 0,0 l/m 0 min 0 min 0 W/m 6,4 km/h (2 Bft) 97,87 %
22.03.2021 02:30 4,1 C 3,3 C 1,1 C 88 % 1024,2 hPa 0,0 l/m 0 min 0 min 0 W/m 6,4 km/h (2 Bft) 97,87 %
22.03.2021 02:32 4,0 C 3,3 C 1,1 C 88 % 1024,3 hPa 0,0 l/m 0 min 0 min 0 W/m 12,9 km/h (3 Bft) 97,83 %
22.03.2021 02:34 4,0 C 3,3 C 1,1 C 88 % 1024,2 hPa 0,0 l/m 0 min 0 min 0 W/m 6,4 km/h (2 Bft) 95,74 %
22.03.2021 02:36 4,0 C 2,8 C 1,1 C 88 % 1024,1 hPa 0,0 l/m 0 min 0 min 0 W/m 9,7 km/h (2 Bft) 97,87 %
22.03.2021 02:38 3,9 C 2,8 C 1,1 C 89 % 1024,1 hPa 0,0 l/m 0 min 0 min 0 W/m 6,4 km/h (2 Bft) 95,74 %
22.03.2021 02:40 3,9 C 3,3 C 1,1 C 89 % 1024,1 hPa 0,0 l/m 0 min 0 min 0 W/m 6,4 km/h (2 Bft) 97,87 %
22.03.2021 02:42 3,9 C 3,3 C 1,1 C 89 % 1024,1 hPa 0,0 l/m 0 min 0 min 0 W/m 3,2 km/h (1 Bft) 97,87 %
22.03.2021 02:44 3,9 C 3,3 C 1,1 C 89 % 1024,1 hPa 0,0 l/m 0 min 0 min 0 W/m 3,2 km/h (1 Bft) 97,83 %
22.03.2021 02:46 3,9 C 2,8 C 1,1 C 89 % 1024,1 hPa 0,0 l/m 0 min 0 min 0 W/m 3,2 km/h (1 Bft) 97,87 %
22.03.2021 02:48 3,8 C 2,8 C 1,1 C 89 % 1024,1 hPa 0,0 l/m 0 min 0 min 0 W/m 3,2 km/h (1 Bft) 97,87 %
22.03.2021 02:50 3,8 C 2,8 C 1,1 C 89 % 1024,0 hPa 0,0 l/m 0 min 0 min 0 W/m 6,4 km/h (2 Bft) 97,87 %
22.03.2021 02:52 3,8 C 2,8 C 1,1 C 89 % 1024,0 hPa 0,0 l/m 0 min 0 min 0 W/m 3,2 km/h (1 Bft) 100,00 %
22.03.2021 02:54 3,8 C 2,8 C 1,1 C 89 % 1024,0 hPa 0,0 l/m 0 min 0 min 0 W/m 6,4 km/h (2 Bft) 100,00 %
22.03.2021 02:56 3,7 C 2,8 C 1,1 C 89 % 1024,1 hPa 0,0 l/m 0 min 0 min 0 W/m 6,4 km/h (2 Bft) 97,83 %
22.03.2021 02:58 3,6 C 2,8 C 0,6 C 89 % 1024,1 hPa 0,0 l/m 0 min 0 min 0 W/m 6,4 km/h (2 Bft) 97,87 %
22.03.2021 03:00 3,6 C 2,8 C 0,6 C 89 % 1024,1 hPa 0,0 l/m 0 min 0 min 0 W/m 6,4 km/h (2 Bft) 100,00 %
22.03.2021 03:02 3,6 C 2,8 C 0,6 C 90 % 1024,0 hPa 0,0 l/m 0 min 0 min 0 W/m 6,4 km/h (2 Bft) 93,62 %
22.03.2021 03:04 3,6 C 2,8 C 1,1 C 90 % 1024,0 hPa 0,0 l/m 0 min 0 min 0 W/m 6,4 km/h (2 Bft) 95,74 %
22.03.2021 03:06 3,6 C 2,8 C 1,1 C 90 % 1024,0 hPa 0,0 l/m 0 min 0 min 0 W/m 9,7 km/h (2 Bft) 97,87 %
22.03.2021 03:08 3,5 C 2,8 C 1,1 C 90 % 1024,0 hPa 0,0 l/m 0 min 0 min 0 W/m 9,7 km/h (2 Bft) 97,83 %
22.03.2021 03:10 3,5 C 2,8 C 1,1 C 90 % 1024,1 hPa 0,0 l/m 0 min 0 min 0 W/m 6,4 km/h (2 Bft) 97,87 %
22.03.2021 03:12 3,5 C 2,8 C 1,1 C 90 % 1024,0 hPa 0,0 l/m 0 min 0 min 0 W/m 12,9 km/h (3 Bft) 100,00 %
22.03.2021 03:14 3,5 C 2,8 C 1,1 C 90 % 1024,0 hPa 0,0 l/m 0 min 0 min 0 W/m 6,4 km/h (2 Bft) 95,74 %
22.03.2021 03:16 3,5 C 2,8 C 1,1 C 91 % 1024,0 hPa 0,0 l/m 0 min 0 min 0 W/m 9,7 km/h (2 Bft) 97,87 %
22.03.2021 03:18 3,5 C 2,8 C 1,1 C 91 % 1024,0 hPa 0,0 l/m 0 min 0 min 0 W/m 9,7 km/h (2 Bft) 97,87 %
22.03.2021 03:20 3,5 C 2,8 C 1,1 C 91 % 1024,0 hPa 0,0 l/m 0 min 0 min 0 W/m 9,7 km/h (2 Bft) 95,65 %
22.03.2021 03:22 3,5 C 2,8 C 1,1 C 91 % 1024,0 hPa 0,0 l/m 0 min 0 min 0 W/m 9,7 km/h (2 Bft) 95,74 %
22.03.2021 03:24 3,5 C 2,8 C 1,1 C 91 % 1024,0 hPa 0,0 l/m 0 min 0 min 0 W/m 6,4 km/h (2 Bft) 100,00 %
22.03.2021 03:26 3,5 C 2,8 C 1,1 C 91 % 1024,1 hPa 0,0 l/m 0 min 0 min 0 W/m 12,9 km/h (3 Bft) 97,87 %
22.03.2021 03:28 3,5 C 2,8 C 1,1 C 91 % 1024,1 hPa 0,0 l/m 0 min 0 min 0 W/m 6,4 km/h (2 Bft) 93,62 %
22.03.2021 03:30 3,5 C 3,3 C 1,1 C 91 % 1024,1 hPa 0,0 l/m 0 min 0 min 0 W/m 9,7 km/h (2 Bft) 97,83 %
22.03.2021 03:32 3,5 C 3,3 C 1,1 C 92 % 1024,1 hPa 0,0 l/m 0 min 0 min 0 W/m 9,7 km/h (2 Bft) 97,87 %
22.03.2021 03:34 3,5 C 3,3 C 1,1 C 92 % 1024,0 hPa 0,0 l/m 0 min 0 min 0 W/m 9,7 km/h (2 Bft) 97,87 %
22.03.2021 03:36 3,5 C 3,3 C 1,1 C 92 % 1024,0 hPa 0,0 l/m 0 min 0 min 0 W/m 9,7 km/h (2 Bft) 97,87 %
22.03.2021 03:38 3,5 C 3,3 C 1,1 C 92 % 1024,0 hPa 0,0 l/m 0 min 0 min 0 W/m 9,7 km/h (2 Bft) 97,87 %
22.03.2021 03:40 3,5 C 3,3 C 1,1 C 92 % 1024,0 hPa 0,0 l/m 0 min 0 min 0 W/m 9,7 km/h (2 Bft) 97,87 %
22.03.2021 03:42 3,5 C 3,3 C 1,1 C 92 % 1024,0 hPa 0,0 l/m 0 min 0 min 0 W/m 9,7 km/h (2 Bft) 100,00 %
22.03.2021 03:44 3,5 C 3,3 C 1,1 C 92 % 1024,0 hPa 0,0 l/m 0 min 0 min 0 W/m 6,4 km/h (2 Bft) 97,87 %
22.03.2021 03:46 3,5 C 3,3 C 1,1 C 92 % 1024,0 hPa 0,0 l/m 0 min 0 min 0 W/m 9,7 km/h (2 Bft) 95,74 %
22.03.2021 03:48 3,5 C 3,3 C 1,1 C 92 % 1024,0 hPa 0,0 l/m 0 min 0 min 0 W/m 9,7 km/h (2 Bft) 100,00 %
22.03.2021 03:50 3,5 C 2,8 C 1,1 C 92 % 1023,9 hPa 0,0 l/m 0 min 0 min 0 W/m 6,4 km/h (2 Bft) 100,00 %
22.03.2021 03:52 3,5 C 2,8 C 1,1 C 92 % 1023,9 hPa 0,0 l/m 0 min 0 min 0 W/m 9,7 km/h (2 Bft) 100,00 %
22.03.2021 03:54 3,5 C 3,3 C 1,1 C 92 % 1024,0 hPa 0,0 l/m 0 min 0 min 0 W/m 16,1 km/h (3 Bft) 100,00 %
22.03.2021 03:56 3,5 C 3,3 C 1,1 C 92 % 1024,0 hPa 0,0 l/m 0 min 0 min 0 W/m 12,9 km/h (3 Bft) 100,00 %
22.03.2021 03:58 3,5 C 3,3 C 1,1 C 92 % 1023,9 hPa 0,0 l/m 0 min 0 min 0 W/m 9,7 km/h (2 Bft) 100,00 %
22.03.2021 04:00 3,5 C 3,3 C 1,1 C 92 % 1023,9 hPa 0,0 l/m 0 min 0 min 0 W/m 12,9 km/h (3 Bft) 100,00 %
22.03.2021 04:02 3,5 C 3,3 C 1,1 C 92 % 1024,0 hPa 0,0 l/m 0 min 0 min 0 W/m 12,9 km/h (3 Bft) 91,89 %
22.03.2021 04:04 3,5 C 3,3 C 1,1 C 93 % 1023,9 hPa 0,0 l/m 0 min 0 min 0 W/m 12,9 km/h (3 Bft) 95,74 %
22.03.2021 04:06 3,5 C 2,8 C 1,1 C 93 % 1024,0 hPa 0,0 l/m 0 min 0 min 0 W/m 9,7 km/h (2 Bft) 97,87 %
22.03.2021 04:08 3,5 C 2,8 C 1,1 C 93 % 1024,0 hPa 0,0 l/m 0 min 0 min 0 W/m 12,9 km/h (3 Bft) 97,87 %
22.03.2021 04:10 3,5 C 2,8 C 1,1 C 93 % 1023,9 hPa 0,0 l/m 0 min 0 min 0 W/m 16,1 km/h (3 Bft) 57,45 %
22.03.2021 04:12 3,5 C 2,8 C 1,1 C 93 % 1023,9 hPa 0,0 l/m 0 min 0 min 0 W/m 12,9 km/h (3 Bft) 100,00 %
22.03.2021 04:14 3,5 C 2,8 C 1,1 C 93 % 1024,0 hPa 0,0 l/m 0 min 0 min 0 W/m 6,4 km/h (2 Bft) 100,00 %
22.03.2021 04:16 3,5 C 2,8 C 1,1 C 93 % 1024,0 hPa 0,0 l/m 0 min 0 min 0 W/m 9,7 km/h (2 Bft) 100,00 %
22.03.2021 04:18 3,5 C 2,8 C 1,1 C 93 % 1024,0 hPa 0,0 l/m 0 min 0 min 0 W/m 9,7 km/h (2 Bft) 100,00 %
22.03.2021 04:20 3,5 C 2,8 C 1,1 C 93 % 1024,0 hPa 0,0 l/m 0 min 0 min 0 W/m 9,7 km/h (2 Bft) 97,87 %
22.03.2021 04:22 3,4 C 2,8 C 1,1 C 93 % 1024,0 hPa 0,0 l/m 0 min 0 min 0 W/m 9,7 km/h (2 Bft) 97,83 %
22.03.2021 04:24 3,4 C 2,2 C 0,6 C 93 % 1024,0 hPa 0,0 l/m 0 min 0 min 0 W/m 9,7 km/h (2 Bft) 95,74 %
22.03.2021 04:26 3,4 C 2,2 C 0,6 C 93 % 1024,0 hPa 0,0 l/m 0 min 0 min 0 W/m 6,4 km/h (2 Bft) 97,87 %
22.03.2021 04:28 3,3 C 2,2 C 0,6 C 93 % 1024,0 hPa 0,0 l/m 0 min 0 min 0 W/m 6,4 km/h (2 Bft) 95,74 %
22.03.2021 04:30 3,3 C 2,2 C 0,6 C 93 % 1023,9 hPa 0,0 l/m 0 min 0 min 0 W/m 9,7 km/h (2 Bft) 97,87 %
22.03.2021 04:32 3,3 C 2,2 C 0,6 C 93 % 1023,9 hPa 0,0 l/m 0 min 0 min 0 W/m 6,4 km/h (2 Bft) 97,92 %
22.03.2021 04:34 3,3 C 2,2 C 0,6 C 93 % 1024,0 hPa 0,0 l/m 0 min 0 min 0 W/m 3,2 km/h (1 Bft) 95,74 %
22.03.2021 04:36 3,2 C 2,2 C 0,6 C 93 % 1023,9 hPa 0,0 l/m 0 min 0 min 0 W/m 12,9 km/h (3 Bft) 97,83 %
22.03.2021 04:38 3,2 C 2,2 C 0,6 C 93 % 1023,9 hPa 0,0 l/m 0 min 0 min 0 W/m 6,4 km/h (2 Bft) 97,87 %
22.03.2021 04:40 3,1 C 2,2 C 0,6 C 93 % 1024,0 hPa 0,0 l/m 0 min 0 min 0 W/m 6,4 km/h (2 Bft) 97,87 %
22.03.2021 04:42 3,1 C 2,2 C 0,6 C 93 % 1024,0 hPa 0,0 l/m 0 min 0 min 0 W/m 6,4 km/h (2 Bft) 97,87 %
22.03.2021 04:44 3,1 C 2,2 C 0,6 C 93 % 1024,0 hPa 0,0 l/m 0 min 0 min 0 W/m 6,4 km/h (2 Bft) 97,87 %
22.03.2021 04:46 3,0 C 2,2 C 0,6 C 93 % 1024,0 hPa 0,0 l/m 0 min 0 min 0 W/m 6,4 km/h (2 Bft) 95,65 %
22.03.2021 04:48 3,0 C 2,2 C 0,6 C 93 % 1024,0 hPa 0,0 l/m 0 min 0 min 0 W/m 9,7 km/h (2 Bft) 97,87 %
22.03.2021 04:50 3,0 C 2,2 C 0,6 C 93 % 1024,0 hPa 0,0 l/m 0 min 0 min 0 W/m 9,7 km/h (2 Bft) 97,87 %
22.03.2021 04:52 3,0 C 2,2 C 0,6 C 93 % 1024,0 hPa 0,0 l/m 0 min 0 min 0 W/m 6,4 km/h (2 Bft) 97,87 %
22.03.2021 04:54 3,0 C 2,2 C 0,6 C 93 % 1024,0 hPa 0,0 l/m 0 min 0 min 0 W/m 12,9 km/h (3 Bft) 97,87 %
22.03.2021 04:56 3,0 C 2,2 C 0,6 C 93 % 1024,0 hPa 0,0 l/m 0 min 0 min 0 W/m 9,7 km/h (2 Bft) 95,74 %
22.03.2021 04:58 3,0 C 2,2 C 0,6 C 93 % 1024,0 hPa 0,0 l/m 0 min 0 min 0 W/m 9,7 km/h (2 Bft) 97,83 %
22.03.2021 05:00 2,9 C 2,2 C 0,6 C 93 % 1024,0 hPa 0,0 l/m 0 min 0 min 0 W/m 9,7 km/h (2 Bft) 97,87 %
22.03.2021 05:02 2,9 C 2,2 C 0,6 C 93 % 1024,0 hPa 0,0 l/m 0 min 0 min 0 W/m 9,7 km/h (2 Bft) 97,92 %
22.03.2021 05:04 2,9 C 2,2 C 0,6 C 93 % 1024,0 hPa 0,0 l/m 0 min 0 min 0 W/m 6,4 km/h (2 Bft) 93,62 %
22.03.2021 05:06 2,9 C 2,2 C 0,6 C 93 % 1024,0 hPa 0,0 l/m 0 min 0 min 0 W/m 9,7 km/h (2 Bft) 91,49 %
22.03.2021 05:08 2,9 C 2,2 C 0,6 C 93 % 1024,0 hPa 0,0 l/m 0 min 0 min 0 W/m 6,4 km/h (2 Bft) 95,74 %
22.03.2021 05:10 2,9 C 2,2 C 0,6 C 94 % 1024,0 hPa 0,0 l/m 0 min 0 min 0 W/m 6,4 km/h (2 Bft) 95,65 %
22.03.2021 05:12 2,9 C 2,2 C 0,6 C 94 % 1024,0 hPa 0,0 l/m 0 min 0 min 0 W/m 6,4 km/h (2 Bft) 93,62 %
22.03.2021 05:14 2,9 C 2,2 C 0,6 C 94 % 1024,0 hPa 0,0 l/m 0 min 0 min 0 W/m 9,7 km/h (2 Bft) 93,62 %
22.03.2021 05:16 2,9 C 2,2 C 0,6 C 94 % 1024,0 hPa 0,0 l/m 0 min 0 min 0 W/m 6,4 km/h (2 Bft) 93,62 %
22.03.2021 05:18 2,9 C 2,2 C 0,6 C 94 % 1024,0 hPa 0,0 l/m 0 min 0 min 0 W/m 9,7 km/h (2 Bft) 95,74 %
22.03.2021 05:20 2,9 C 2,2 C 0,6 C 94 % 1024,0 hPa 0,0 l/m 0 min 0 min 0 W/m 6,4 km/h (2 Bft) 93,62 %
22.03.2021 05:22 2,9 C 2,2 C 0,6 C 94 % 1024,0 hPa 0,0 l/m 0 min 0 min 0 W/m 6,4 km/h (2 Bft) 91,30 %
22.03.2021 05:24 2,9 C 2,2 C 0,6 C 94 % 1024,0 hPa 0,0 l/m 0 min 0 min 0 W/m 9,7 km/h (2 Bft) 93,62 %
22.03.2021 05:26 2,9 C 2,8 C 0,6 C 94 % 1024,0 hPa 0,0 l/m 0 min 0 min 0 W/m 6,4 km/h (2 Bft) 92,31 %
22.03.2021 05:28 2,9 C 2,8 C 1,1 C 94 % 1024,0 hPa 0,0 l/m 0 min 0 min 0 W/m 6,4 km/h (2 Bft) 93,48 %
22.03.2021 05:30 3,0 C 2,8 C 1,1 C 95 % 1024,0 hPa 0,0 l/m 0 min 0 min 0 W/m 9,7 km/h (2 Bft) 93,62 %
22.03.2021 05:32 3,0 C 2,8 C 1,1 C 95 % 1024,0 hPa 0,0 l/m 0 min 0 min 0 W/m 6,4 km/h (2 Bft) 91,49 %
22.03.2021 05:34 3,0 C 2,8 C 1,1 C 95 % 1024,0 hPa 0,0 l/m 0 min 0 min 0 W/m 9,7 km/h (2 Bft) 93,62 %
22.03.2021 05:36 3,0 C 2,8 C 1,1 C 95 % 1024,0 hPa 0,0 l/m 0 min 0 min 0 W/m 6,4 km/h (2 Bft) 93,62 %
22.03.2021 05:38 3,0 C 2,8 C 1,1 C 95 % 1024,0 hPa 0,0 l/m 0 min 0 min 0 W/m 6,4 km/h (2 Bft) 93,62 %
22.03.2021 05:40 3,1 C 2,8 C 1,1 C 95 % 1024,1 hPa 0,0 l/m 0 min 0 min 0 W/m 6,4 km/h (2 Bft) 93,48 %
22.03.2021 05:42 3,1 C 2,8 C 1,1 C 95 % 1024,1 hPa 0,0 l/m 0 min 0 min 0 W/m 9,7 km/h (2 Bft) 91,49 %
22.03.2021 05:44 3,1 C 2,8 C 1,1 C 95 % 1024,1 hPa 0,0 l/m 0 min 0 min 0 W/m 9,7 km/h (2 Bft) 91,49 %
22.03.2021 05:46 3,1 C 2,8 C 1,1 C 95 % 1024,1 hPa 0,0 l/m 0 min 0 min 0 W/m 6,4 km/h (2 Bft) 93,62 %
22.03.2021 05:48 3,1 C 2,8 C 1,1 C 95 % 1024,1 hPa 0,0 l/m 0 min 0 min 0 W/m 3,2 km/h (1 Bft) 91,49 %
22.03.2021 05:50 3,1 C 2,8 C 1,1 C 95 % 1024,1 hPa 0,0 l/m 0 min 0 min 0 W/m 6,4 km/h (2 Bft) 91,49 %
22.03.2021 05:52 3,1 C 2,8 C 1,1 C 95 % 1024,1 hPa 0,0 l/m 0 min 0 min 0 W/m 3,2 km/h (1 Bft) 93,48 %
22.03.2021 05:54 3,1 C 2,8 C 1,1 C 95 % 1024,1 hPa 0,0 l/m 0 min 0 min 0 W/m 6,4 km/h (2 Bft) 93,62 %
22.03.2021 05:56 3,2 C 2,8 C 1,1 C 95 % 1024,1 hPa 0,0 l/m 0 min 0 min 0 W/m 6,4 km/h (2 Bft) 91,49 %
22.03.2021 05:58 3,2 C 2,8 C 1,1 C 95 % 1024,1 hPa 0,0 l/m 0 min 0 min 0 W/m 6,4 km/h (2 Bft) 95,74 %
22.03.2021 06:00 3,2 C 2,8 C 1,1 C 95 % 1024,2 hPa 0,0 l/m 0 min 0 min 0 W/m 3,2 km/h (1 Bft) 95,74 %
22.03.2021 06:02 3,2 C 2,8 C 1,1 C 95 % 1024,2 hPa 0,0 l/m 0 min 0 min 0 W/m 6,4 km/h (2 Bft) 100,00 %
22.03.2021 06:04 3,3 C 2,8 C 1,1 C 95 % 1024,2 hPa 0,0 l/m 0 min 0 min 0 W/m 6,4 km/h (2 Bft) 97,83 %
22.03.2021 06:08 3,3 C 2,8 C 1,1 C 95 % 1024,3 hPa 0,0 l/m 0 min 0 min 0 W/m 9,7 km/h (2 Bft) 97,03 %
22.03.2021 06:10 3,3 C 2,8 C 1,1 C 95 % 1024,3 hPa 0,0 l/m 0 min 0 min 0 W/m 9,7 km/h (2 Bft) 100,00 %
22.03.2021 06:12 3,3 C 2,8 C 1,1 C 95 % 1024,3 hPa 0,0 l/m 0 min 0 min 0 W/m 6,4 km/h (2 Bft) 100,00 %
22.03.2021 06:14 3,3 C 2,8 C 1,1 C 95 % 1024,2 hPa 0,0 l/m 0 min 0 min 0 W/m 3,2 km/h (1 Bft) 97,92 %
22.03.2021 06:16 3,3 C 2,8 C 1,1 C 95 % 1024,3 hPa 0,0 l/m 0 min 0 min 0 W/m 9,7 km/h (2 Bft) 97,83 %
22.03.2021 06:18 3,3 C 2,8 C 1,1 C 95 % 1024,2 hPa 0,0 l/m 0 min 0 min 0 W/m 6,4 km/h (2 Bft) 100,00 %
22.03.2021 06:20 3,3 C 2,8 C 1,1 C 96 % 1024,2 hPa 0,0 l/m 0 min 0 min 0 W/m 9,7 km/h (2 Bft) 100,00 %
22.03.2021 06:22 3,3 C 2,8 C 1,1 C 96 % 1024,2 hPa 0,0 l/m 0 min 0 min 0 W/m 12,9 km/h (3 Bft) 100,00 %
22.03.2021 06:24 3,3 C 2,8 C 1,1 C 96 % 1024,2 hPa 0,0 l/m 0 min 0 min 0 W/m 9,7 km/h (2 Bft) 100,00 %
22.03.2021 06:26 3,3 C 2,8 C 1,1 C 96 % 1024,3 hPa 0,0 l/m 0 min 0 min 0 W/m 6,4 km/h (2 Bft) 97,87 %
22.03.2021 06:28 3,3 C 2,8 C 1,1 C 96 % 1024,2 hPa 0,0 l/m 0 min 0 min 0 W/m 6,4 km/h (2 Bft) 98,18 %
22.03.2021 06:30 3,3 C 2,8 C 1,1 C 96 % 1024,3 hPa 0,0 l/m 0 min 0 min 0 W/m 12,9 km/h (3 Bft) 100,00 %
22.03.2021 06:32 3,3 C 2,8 C 1,1 C 96 % 1024,3 hPa 0,0 l/m 0 min 0 min 0 W/m 6,4 km/h (2 Bft) 100,00 %
22.03.2021 06:34 3,3 C 2,8 C 1,1 C 96 % 1024,3 hPa 0,0 l/m 0 min 0 min 0 W/m 9,7 km/h (2 Bft) 97,92 %
22.03.2021 06:36 3,3 C 2,8 C 1,1 C 96 % 1024,2 hPa 0,0 l/m 0 min 0 min 0 W/m 9,7 km/h (2 Bft) 95,65 %
22.03.2021 06:38 3,2 C 2,8 C 1,1 C 96 % 1024,3 hPa 0,0 l/m 0 min 0 min 4 W/m 6,4 km/h (2 Bft) 97,87 %
22.03.2021 06:40 3,2 C 2,8 C 1,1 C 96 % 1024,2 hPa 0,0 l/m 0 min 0 min 5 W/m 3,2 km/h (1 Bft) 100,00 %
22.03.2021 06:42 3,2 C 2,8 C 1,1 C 96 % 1024,3 hPa 0,0 l/m 0 min 0 min 5 W/m 9,7 km/h (2 Bft) 100,00 %
22.03.2021 06:44 3,2 C 2,8 C 1,1 C 95 % 1024,3 hPa 0,0 l/m 0 min 0 min 5 W/m 6,4 km/h (2 Bft) 100,00 %
22.03.2021 06:46 3,2 C 2,8 C 1,1 C 95 % 1024,3 hPa 0,0 l/m 0 min 0 min 6 W/m 6,4 km/h (2 Bft) 100,00 %
22.03.2021 06:48 3,2 C 2,8 C 1,1 C 96 % 1024,2 hPa 0,0 l/m 0 min 0 min 8 W/m 6,4 km/h (2 Bft) 95,65 %
22.03.2021 06:50 3,3 C 2,8 C 1,1 C 96 % 1024,2 hPa 0,0 l/m 0 min 0 min 9 W/m 9,7 km/h (2 Bft) 100,00 %
22.03.2021 06:52 3,3 C 2,8 C 1,1 C 96 % 1024,3 hPa 0,0 l/m 0 min 0 min 10 W/m 12,9 km/h (3 Bft) 100,00 %
22.03.2021 06:54 3,3 C 2,8 C 1,1 C 96 % 1024,2 hPa 0,0 l/m 0 min 0 min 12 W/m 6,4 km/h (2 Bft) 100,00 %
22.03.2021 06:56 3,3 C 2,8 C 1,1 C 96 % 1024,3 hPa 0,0 l/m 0 min 0 min 14 W/m 0,0 km/h (0 Bft) 100,00 %
22.03.2021 06:58 3,3 C 2,8 C 1,1 C 96 % 1024,2 hPa 0,0 l/m 0 min 0 min 15 W/m 0,0 km/h (0 Bft) 100,00 %
22.03.2021 07:00 3,3 C 2,8 C 1,1 C 96 % 1024,2 hPa 0,0 l/m 0 min 0 min 17 W/m 3,2 km/h (1 Bft) 100,00 %
22.03.2021 07:02 3,3 C 2,8 C 1,1 C 96 % 1024,2 hPa 0,0 l/m 0 min 0 min 19 W/m 6,4 km/h (2 Bft) 100,00 %
22.03.2021 07:04 3,3 C 2,8 C 1,1 C 96 % 1024,3 hPa 0,0 l/m 0 min 0 min 20 W/m 9,7 km/h (2 Bft) 97,87 %
22.03.2021 07:06 3,2 C 2,8 C 1,1 C 96 % 1024,3 hPa 0,0 l/m 0 min 0 min 22 W/m 3,2 km/h (1 Bft) 100,00 %
22.03.2021 07:08 3,2 C 2,8 C 1,1 C 96 % 1024,3 hPa 0,0 l/m 0 min 0 min 25 W/m 0,0 km/h (0 Bft) 100,00 %
22.03.2021 07:10 3,2 C 2,8 C 1,1 C 96 % 1024,4 hPa 0,0 l/m 0 min 0 min 26 W/m 0,0 km/h (0 Bft) 100,00 %
22.03.2021 07:12 3,2 C 2,8 C 1,7 C 96 % 1024,4 hPa 0,0 l/m 0 min 0 min 31 W/m 3,2 km/h (1 Bft) 100,00 %
22.03.2021 07:14 3,2 C 2,8 C 1,7 C 96 % 1024,4 hPa 0,0 l/m 0 min 0 min 38 W/m 0,0 km/h (0 Bft) 100,00 %
22.03.2021 07:16 3,2 C 2,8 C 1,7 C 96 % 1024,4 hPa 0,0 l/m 0 min 0 min 45 W/m 0,0 km/h (0 Bft) 97,87 %
22.03.2021 07:18 3,3 C 3,3 C 1,7 C 96 % 1024,4 hPa 0,0 l/m 0 min 0 min 44 W/m 9,7 km/h (2 Bft) 100,00 %
22.03.2021 07:20 3,3 C 3,3 C 1,7 C 96 % 1024,3 hPa 0,0 l/m 0 min 0 min 41 W/m 6,4 km/h (2 Bft) 100,00 %
22.03.2021 07:22 3,3 C 3,3 C 1,7 C 96 % 1024,3 hPa 0,0 l/m 0 min 0 min 40 W/m 9,7 km/h (2 Bft) 100,00 %
22.03.2021 07:24 3,3 C 3,3 C 1,7 C 96 % 1024,3 hPa 0,0 l/m 0 min 0 min 42 W/m 6,4 km/h (2 Bft) 97,87 %
22.03.2021 07:26 3,3 C 3,3 C 1,7 C 96 % 1024,4 hPa 0,0 l/m 0 min 0 min 44 W/m 6,4 km/h (2 Bft) 97,87 %
22.03.2021 07:28 3,3 C 3,3 C 1,7 C 96 % 1024,4 hPa 0,0 l/m 0 min 0 min 44 W/m 3,2 km/h (1 Bft) 100,00 %
22.03.2021 07:30 3,3 C 3,3 C 1,7 C 96 % 1024,4 hPa 0,0 l/m 0 min 0 min 46 W/m 6,4 km/h (2 Bft) 97,87 %
22.03.2021 07:32 3,3 C 3,3 C 1,7 C 96 % 1024,4 hPa 0,0 l/m 0 min 0 min 46 W/m 12,9 km/h (3 Bft) 100,00 %
22.03.2021 07:34 3,3 C 3,3 C 1,7 C 96 % 1024,4 hPa 0,0 l/m 0 min 0 min 46 W/m 6,4 km/h (2 Bft) 97,87 %
22.03.2021 07:36 3,3 C 3,3 C 1,7 C 96 % 1024,4 hPa 0,0 l/m 0 min 0 min 46 W/m 12,9 km/h (3 Bft) 100,00 %
22.03.2021 07:38 3,3 C 3,3 C 1,7 C 96 % 1024,5 hPa 0,0 l/m 0 min 0 min 44 W/m 19,3 km/h (3 Bft) 100,00 %
22.03.2021 07:40 3,3 C 3,3 C 1,7 C 96 % 1024,4 hPa 0,0 l/m 0 min 0 min 44 W/m 16,1 km/h (3 Bft) 100,00 %
22.03.2021 07:42 3,3 C 3,3 C 1,7 C 96 % 1024,4 hPa 0,0 l/m 0 min 0 min 44 W/m 16,1 km/h (3 Bft) 100,00 %
22.03.2021 07:44 3,4 C 3,3 C 1,7 C 96 % 1024,5 hPa 0,0 l/m 0 min 0 min 46 W/m 16,1 km/h (3 Bft) 97,87 %
22.03.2021 07:46 3,4 C 3,3 C 1,7 C 96 % 1024,6 hPa 0,0 l/m 0 min 0 min 45 W/m 12,9 km/h (3 Bft) 97,83 %
22.03.2021 07:48 3,4 C 3,3 C 1,7 C 96 % 1024,5 hPa 0,0 l/m 0 min 0 min 46 W/m 12,9 km/h (3 Bft) 97,87 %
22.03.2021 07:50 3,4 C 3,3 C 1,7 C 96 % 1024,4 hPa 0,0 l/m 0 min 0 min 46 W/m 9,7 km/h (2 Bft) 98,00 %
22.03.2021 07:52 3,4 C 3,3 C 1,7 C 96 % 1024,5 hPa 0,0 l/m 0 min 0 min 46 W/m 12,9 km/h (3 Bft) 97,87 %
22.03.2021 07:54 3,5 C 3,3 C 1,7 C 96 % 1024,5 hPa 0,0 l/m 0 min 0 min 48 W/m 12,9 km/h (3 Bft) 95,74 %
22.03.2021 07:56 3,5 C 3,3 C 1,7 C 96 % 1024,6 hPa 0,0 l/m 0 min 0 min 51 W/m 16,1 km/h (3 Bft) 97,83 %
22.03.2021 07:58 3,5 C 3,9 C 2,3 C 96 % 1024,5 hPa 0,0 l/m 0 min 0 min 48 W/m 16,1 km/h (3 Bft) 95,74 %
22.03.2021 08:00 3,6 C 3,9 C 2,3 C 96 % 1024,6 hPa 0,0 l/m 0 min 0 min 47 W/m 12,9 km/h (3 Bft) 97,87 %
22.03.2021 08:02 3,6 C 3,9 C 2,3 C 96 % 1024,6 hPa 0,0 l/m 0 min 0 min 48 W/m 12,9 km/h (3 Bft) 95,74 %
22.03.2021 08:04 3,6 C 3,9 C 2,3 C 96 % 1024,6 hPa 0,0 l/m 0 min 0 min 50 W/m 12,9 km/h (3 Bft) 93,62 %
22.03.2021 08:06 3,7 C 3,9 C 2,3 C 96 % 1024,6 hPa 0,0 l/m 0 min 0 min 53 W/m 25,7 km/h (4 Bft) 95,74 %
22.03.2021 08:08 3,7 C 3,9 C 2,3 C 96 % 1024,6 hPa 0,0 l/m 0 min 0 min 60 W/m 16,1 km/h (3 Bft) 97,87 %
22.03.2021 08:10 3,8 C 3,9 C 2,3 C 96 % 1024,6 hPa 0,0 l/m 0 min 0 min 57 W/m 16,1 km/h (3 Bft) 95,74 %
22.03.2021 08:12 3,9 C 3,9 C 2,3 C 96 % 1024,7 hPa 0,0 l/m 0 min 0 min 61 W/m 12,9 km/h (3 Bft) 95,74 %
22.03.2021 08:14 3,9 C 3,9 C 2,3 C 96 % 1024,7 hPa 0,0 l/m 0 min 0 min 52 W/m 19,3 km/h (3 Bft) 95,65 %
22.03.2021 08:16 3,9 C 3,9 C 2,3 C 96 % 1024,7 hPa 0,0 l/m 0 min 0 min 49 W/m 19,3 km/h (3 Bft) 95,74 %
22.03.2021 08:18 3,9 C 3,9 C 2,3 C 96 % 1024,6 hPa 0,0 l/m 0 min 0 min 49 W/m 12,9 km/h (3 Bft) 95,74 %
22.03.2021 08:20 4,0 C 3,9 C 2,3 C 96 % 1024,6 hPa 0,0 l/m 0 min 0 min 50 W/m 9,7 km/h (2 Bft) 95,74 %
22.03.2021 08:22 4,0 C 4,4 C 2,3 C 96 % 1024,6 hPa 0,0 l/m 0 min 0 min 50 W/m 12,9 km/h (3 Bft) 95,74 %
22.03.2021 08:24 4,0 C 4,4 C 2,8 C 96 % 1024,6 hPa 0,0 l/m 0 min 0 min 51 W/m 9,7 km/h (2 Bft) 95,65 %
22.03.2021 08:26 4,1 C 4,4 C 2,8 C 96 % 1024,7 hPa 0,0 l/m 0 min 0 min 51 W/m 22,5 km/h (4 Bft) 93,62 %
22.03.2021 08:28 4,1 C 4,4 C 2,8 C 96 % 1024,7 hPa 0,0 l/m 0 min 0 min 53 W/m 16,1 km/h (3 Bft) 95,74 %
22.03.2021 08:30 4,1 C 4,4 C 2,8 C 96 % 1024,7 hPa 0,0 l/m 0 min 0 min 58 W/m 19,3 km/h (3 Bft) 97,87 %
22.03.2021 08:32 4,2 C 4,4 C 2,8 C 96 % 1024,6 hPa 0,0 l/m 0 min 0 min 79 W/m 16,1 km/h (3 Bft) 97,87 %
22.03.2021 08:34 4,3 C 4,4 C 2,8 C 96 % 1024,6 hPa 0,0 l/m 2 min 0 min 178 W/m 12,9 km/h (3 Bft) 97,87 %
22.03.2021 08:36 4,3 C 4,4 C 2,8 C 96 % 1024,7 hPa 0,0 l/m 2 min 0 min 187 W/m 19,3 km/h (3 Bft) 97,83 %
22.03.2021 08:38 4,3 C 4,4 C 2,8 C 96 % 1024,7 hPa 0,0 l/m 0 min 0 min 132 W/m 12,9 km/h (3 Bft) 97,87 %
22.03.2021 08:40 4,4 C 4,4 C 2,8 C 95 % 1024,7 hPa 0,0 l/m 0 min 0 min 138 W/m 9,7 km/h (2 Bft) 97,87 %
22.03.2021 08:42 4,4 C 5,0 C 2,8 C 95 % 1024,7 hPa 0,0 l/m 2 min 0 min 263 W/m 16,1 km/h (3 Bft) 93,62 %
22.03.2021 08:44 4,4 C 5,0 C 3,4 C 95 % 1024,7 hPa 0,0 l/m 2 min 0 min 319 W/m 12,9 km/h (3 Bft) 97,87 %
22.03.2021 08:46 4,5 C 5,0 C 3,4 C 95 % 1024,7 hPa 0,0 l/m 2 min 0 min 329 W/m 12,9 km/h (3 Bft) 97,87 %
22.03.2021 08:48 4,6 C 5,6 C 3,4 C 95 % 1024,8 hPa 0,0 l/m 2 min 0 min 352 W/m 16,1 km/h (3 Bft) 97,83 %
22.03.2021 08:50 4,7 C 6,7 C 3,4 C 95 % 1024,8 hPa 0,0 l/m 2 min 0 min 350 W/m 19,3 km/h (3 Bft) 97,87 %
22.03.2021 08:52 4,9 C 7,8 C 3,9 C 95 % 1024,8 hPa 0,0 l/m 2 min 0 min 356 W/m 12,9 km/h (3 Bft) 97,87 %
22.03.2021 08:54 5,0 C 8,3 C 4,5 C 95 % 1024,8 hPa 0,0 l/m 2 min 0 min 331 W/m 12,9 km/h (3 Bft) 97,87 %
22.03.2021 08:56 5,1 C 8,3 C 4,5 C 95 % 1024,8 hPa 0,0 l/m 2 min 0 min 250 W/m 16,1 km/h (3 Bft) 100,00 %
22.03.2021 08:58 5,1 C 7,8 C 4,5 C 94 % 1024,8 hPa 0,0 l/m 0 min 0 min 165 W/m 16,1 km/h (3 Bft) 100,00 %
22.03.2021 09:00 5,2 C 7,8 C 5,0 C 94 % 1024,8 hPa 0,0 l/m 2 min 0 min 292 W/m 16,1 km/h (3 Bft) 97,83 %
22.03.2021 09:02 5,3 C 8,3 C 5,6 C 94 % 1024,8 hPa 0,0 l/m 2 min 0 min 299 W/m 12,9 km/h (3 Bft) 100,00 %
22.03.2021 09:04 5,4 C 9,4 C 7,3 C 94 % 1024,8 hPa 0,0 l/m 2 min 0 min 373 W/m 12,9 km/h (3 Bft) 100,00 %
22.03.2021 09:06 5,5 C 10,6 C 8,4 C 93 % 1024,8 hPa 0,0 l/m 2 min 0 min 369 W/m 12,9 km/h (3 Bft) 97,87 %
22.03.2021 09:08 5,7 C 10,0 C 8,9 C 93 % 1024,8 hPa 0,0 l/m 2 min 0 min 378 W/m 16,1 km/h (3 Bft) 100,00 %
22.03.2021 09:10 5,9 C 10,6 C 9,5 C 93 % 1024,8 hPa 0,0 l/m 2 min 0 min 391 W/m 12,9 km/h (3 Bft) 100,00 %
22.03.2021 09:12 6,0 C 10,6 C 9,5 C 93 % 1024,9 hPa 0,0 l/m 2 min 0 min 404 W/m 16,1 km/h (3 Bft) 100,00 %
22.03.2021 09:14 6,1 C 11,1 C 9,5 C 92 % 1024,9 hPa 0,0 l/m 2 min 0 min 419 W/m 19,3 km/h (3 Bft) 100,00 %
22.03.2021 09:16 6,3 C 11,1 C 8,9 C 92 % 1024,9 hPa 0,0 l/m 2 min 0 min 368 W/m 25,7 km/h (4 Bft) 97,87 %
22.03.2021 09:18 6,4 C 11,1 C 8,9 C 91 % 1024,9 hPa 0,0 l/m 2 min 0 min 378 W/m 25,7 km/h (4 Bft) 100,00 %
22.03.2021 09:20 6,4 C 10,6 C 8,9 C 90 % 1025,0 hPa 0,0 l/m 2 min 0 min 478 W/m 16,1 km/h (3 Bft) 100,00 %
22.03.2021 09:22 6,5 C 10,6 C 8,4 C 90 % 1024,9 hPa 0,0 l/m 2 min 0 min 361 W/m 12,9 km/h (3 Bft) 97,87 %
22.03.2021 09:24 6,6 C 9,4 C 7,3 C 89 % 1024,9 hPa 0,0 l/m 0 min 0 min 168 W/m 19,3 km/h (3 Bft) 97,83 %
22.03.2021 09:26 6,6 C 8,9 C 7,3 C 88 % 1025,0 hPa 0,0 l/m 0 min 0 min 202 W/m 12,9 km/h (3 Bft) 100,00 %
22.03.2021 09:28 6,6 C 10,0 C 7,3 C 88 % 1025,0 hPa 0,0 l/m 2 min 0 min 318 W/m 19,3 km/h (3 Bft) 97,87 %
22.03.2021 09:30 6,6 C 10,6 C 7,8 C 87 % 1025,0 hPa 0,0 l/m 2 min 0 min 358 W/m 19,3 km/h (3 Bft) 100,00 %
22.03.2021 09:32 6,9 C 11,7 C 8,4 C 87 % 1025,0 hPa 0,0 l/m 2 min 0 min 605 W/m 16,1 km/h (3 Bft) 97,87 %
22.03.2021 09:34 7,0 C 10,6 C 7,3 C 87 % 1025,0 hPa 0,0 l/m 2 min 0 min 268 W/m 32,2 km/h (5 Bft) 97,87 %
22.03.2021 09:36 7,0 C 10,0 C 6,7 C 86 % 1025,0 hPa 0,0 l/m 0 min 0 min 168 W/m 16,1 km/h (3 Bft) 95,65 %
22.03.2021 09:38 7,0 C 9,4 C 6,7 C 86 % 1025,1 hPa 0,0 l/m 0 min 0 min 160 W/m 12,9 km/h (3 Bft) 97,87 %
22.03.2021 09:40 7,0 C 9,4 C 6,7 C 86 % 1025,1 hPa 0,0 l/m 2 min 0 min 295 W/m 22,5 km/h (4 Bft) 95,74 %
22.03.2021 09:42 7,0 C 9,4 C 6,7 C 85 % 1025,0 hPa 0,0 l/m 2 min 0 min 449 W/m 22,5 km/h (4 Bft) 97,87 %
22.03.2021 09:44 7,0 C 9,4 C 6,7 C 85 % 1025,0 hPa 0,0 l/m 0 min 0 min 216 W/m 29,0 km/h (5 Bft) 97,87 %
22.03.2021 09:46 7,0 C 10,0 C 7,3 C 85 % 1025,1 hPa 0,0 l/m 0 min 0 min 209 W/m 19,3 km/h (3 Bft) 97,87 %
22.03.2021 09:48 7,1 C 9,4 C 7,3 C 85 % 1025,1 hPa 0,0 l/m 2 min 0 min 262 W/m 16,1 km/h (3 Bft) 95,65 %
22.03.2021 09:50 7,1 C 10,0 C 7,3 C 84 % 1025,1 hPa 0,0 l/m 2 min 0 min 304 W/m 22,5 km/h (4 Bft) 97,87 %
22.03.2021 09:52 7,1 C 10,0 C 7,3 C 84 % 1025,1 hPa 0,0 l/m 2 min 0 min 304 W/m 22,5 km/h (4 Bft) 97,87 %
22.03.2021 09:54 7,1 C 9,4 C 6,7 C 84 % 1025,1 hPa 0,0 l/m 2 min 0 min 422 W/m 22,5 km/h (4 Bft) 97,87 %
22.03.2021 09:56 7,0 C 10,0 C 6,7 C 84 % 1025,1 hPa 0,0 l/m 2 min 0 min 248 W/m 16,1 km/h (3 Bft) 97,87 %
22.03.2021 09:58 7,1 C 10,0 C 7,8 C 84 % 1025,0 hPa 0,0 l/m 2 min 0 min 257 W/m 12,9 km/h (3 Bft) 97,83 %
22.03.2021 10:00 7,2 C 10,6 C 8,9 C 84 % 1025,0 hPa 0,0 l/m 2 min 0 min 313 W/m 19,3 km/h (3 Bft) 97,87 %
22.03.2021 10:02 7,2 C 9,4 C 7,8 C 84 % 1025,1 hPa 0,0 l/m 0 min 0 min 213 W/m 25,7 km/h (4 Bft) 97,87 %
22.03.2021 10:04 7,2 C 8,9 C 7,3 C 84 % 1025,2 hPa 0,0 l/m 2 min 0 min 368 W/m 25,7 km/h (4 Bft) 97,92 %
22.03.2021 10:06 7,2 C 8,9 C 7,3 C 83 % 1025,1 hPa 0,0 l/m 2 min 0 min 358 W/m 19,3 km/h (3 Bft) 95,74 %
22.03.2021 10:08 7,1 C 8,3 C 6,7 C 83 % 1025,1 hPa 0,0 l/m 0 min 0 min 128 W/m 19,3 km/h (3 Bft) 97,87 %
22.03.2021 10:10 7,1 C 8,3 C 7,8 C 83 % 1025,1 hPa 0,0 l/m 0 min 0 min 141 W/m 9,7 km/h (2 Bft) 97,87 %
22.03.2021 10:12 7,1 C 10,0 C 8,9 C 83 % 1025,2 hPa 0,0 l/m 2 min 0 min 579 W/m 19,3 km/h (3 Bft) 97,83 %
22.03.2021 10:14 7,3 C 10,6 C 10,0 C 84 % 1025,1 hPa 0,0 l/m 2 min 0 min 611 W/m 19,3 km/h (3 Bft) 97,87 %
22.03.2021 10:16 7,4 C 11,1 C 10,6 C 83 % 1025,2 hPa 0,0 l/m 2 min 0 min 628 W/m 29,0 km/h (5 Bft) 97,87 %
22.03.2021 10:18 7,5 C 11,7 C 10,0 C 83 % 1025,1 hPa 0,0 l/m 2 min 0 min 498 W/m 16,1 km/h (3 Bft) 97,87 %
22.03.2021 10:20 7,6 C 11,7 C 11,1 C 83 % 1025,1 hPa 0,0 l/m 2 min 0 min 401 W/m 19,3 km/h (3 Bft) 97,87 %
22.03.2021 10:22 7,8 C 11,7 C 10,0 C 83 % 1025,1 hPa 0,0 l/m 2 min 0 min 536 W/m 25,7 km/h (4 Bft) 97,83 %
22.03.2021 10:24 7,9 C 11,7 C 9,5 C 82 % 1025,1 hPa 0,0 l/m 0 min 0 min 244 W/m 12,9 km/h (3 Bft) 97,87 %
22.03.2021 10:26 7,9 C 10,6 C 8,4 C 81 % 1025,1 hPa 0,0 l/m 0 min 0 min 231 W/m 16,1 km/h (3 Bft) 97,87 %
22.03.2021 10:28 8,0 C 10,6 C 8,9 C 81 % 1025,1 hPa 0,0 l/m 0 min 0 min 231 W/m 19,3 km/h (3 Bft) 93,62 %
22.03.2021 10:30 8,0 C 11,7 C 10,0 C 81 % 1025,2 hPa 0,0 l/m 2 min 0 min 350 W/m 19,3 km/h (3 Bft) 95,74 %
22.03.2021 10:32 8,1 C 11,7 C 10,6 C 80 % 1025,1 hPa 0,0 l/m 2 min 0 min 282 W/m 12,9 km/h (3 Bft) 97,87 %
22.03.2021 10:34 8,2 C 12,8 C 12,3 C 80 % 1025,1 hPa 0,0 l/m 2 min 0 min 687 W/m 16,1 km/h (3 Bft) 95,56 %
22.03.2021 10:36 8,4 C 13,3 C 12,3 C 80 % 1025,1 hPa 0,0 l/m 2 min 0 min 533 W/m 19,3 km/h (3 Bft) 97,87 %
22.03.2021 10:38 8,5 C 12,8 C 10,6 C 79 % 1025,2 hPa 0,0 l/m 0 min 0 min 243 W/m 16,1 km/h (3 Bft) 97,87 %
22.03.2021 10:40 8,5 C 11,7 C 8,9 C 79 % 1025,2 hPa 0,0 l/m 0 min 0 min 198 W/m 16,1 km/h (3 Bft) 95,74 %
22.03.2021 10:42 8,5 C 10,6 C 8,4 C 78 % 1025,1 hPa 0,0 l/m 0 min 0 min 188 W/m 12,9 km/h (3 Bft) 93,62 %
22.03.2021 10:44 8,4 C 9,4 C 7,3 C 78 % 1025,2 hPa 0,0 l/m 0 min 0 min 172 W/m 12,9 km/h (3 Bft) 95,65 %
22.03.2021 10:46 8,4 C 8,9 C 6,7 C 78 % 1025,1 hPa 0,0 l/m 0 min 0 min 163 W/m 16,1 km/h (3 Bft) 100,00 %
22.03.2021 10:48 8,3 C 8,9 C 6,7 C 78 % 1025,2 hPa 0,0 l/m 0 min 0 min 188 W/m 9,7 km/h (2 Bft) 97,87 %
22.03.2021 10:50 8,2 C 8,3 C 6,1 C 78 % 1025,1 hPa 0,0 l/m 0 min 0 min 211 W/m 22,5 km/h (4 Bft) 97,87 %
22.03.2021 10:52 8,1 C 8,3 C 6,1 C 77 % 1025,2 hPa 0,0 l/m 0 min 0 min 178 W/m 25,7 km/h (4 Bft) 97,87 %
22.03.2021 10:54 8,0 C 8,3 C 6,1 C 76 % 1025,2 hPa 0,0 l/m 0 min 0 min 135 W/m 19,3 km/h (3 Bft) 95,65 %
22.03.2021 10:56 7,9 C 7,8 C 5,6 C 76 % 1025,2 hPa 0,0 l/m 0 min 0 min 127 W/m 16,1 km/h (3 Bft) 97,87 %
22.03.2021 10:58 7,9 C 7,8 C 5,6 C 77 % 1025,2 hPa 0,0 l/m 0 min 0 min 122 W/m 22,5 km/h (4 Bft) 95,74 %
22.03.2021 11:00 7,8 C 7,8 C 5,6 C 77 % 1025,1 hPa 0,0 l/m 0 min 0 min 111 W/m 22,5 km/h (4 Bft) 97,87 %
22.03.2021 11:02 7,7 C 7,2 C 5,6 C 78 % 1025,2 hPa 0,0 l/m 0 min 0 min 119 W/m 19,3 km/h (3 Bft) 95,83 %
22.03.2021 11:04 7,6 C 7,2 C 5,6 C 78 % 1025,2 hPa 0,0 l/m 0 min 0 min 118 W/m 19,3 km/h (3 Bft) 97,87 %
22.03.2021 11:06 7,6 C 7,2 C 5,0 C 79 % 1025,2 hPa 0,0 l/m 0 min 0 min 106 W/m 22,5 km/h (4 Bft) 97,83 %
22.03.2021 11:08 7,5 C 7,2 C 5,0 C 79 % 1025,3 hPa 0,0 l/m 0 min 0 min 104 W/m 19,3 km/h (3 Bft) 97,87 %
22.03.2021 11:10 7,4 C 7,2 C 5,0 C 79 % 1025,3 hPa 0,0 l/m 0 min 0 min 102 W/m 22,5 km/h (4 Bft) 97,87 %
22.03.2021 11:12 7,4 C 7,2 C 5,0 C 79 % 1025,2 hPa 0,0 l/m 0 min 0 min 105 W/m 22,5 km/h (4 Bft) 97,87 %
22.03.2021 11:14 7,3 C 7,2 C 5,0 C 79 % 1025,3 hPa 0,0 l/m 0 min 0 min 109 W/m 19,3 km/h (3 Bft) 95,74 %
22.03.2021 11:16 7,3 C 7,2 C 5,0 C 79 % 1025,2 hPa 0,0 l/m 0 min 0 min 122 W/m 19,3 km/h (3 Bft) 97,87 %
22.03.2021 11:18 7,2 C 7,2 C 5,0 C 79 % 1025,2 hPa 0,0 l/m 0 min 0 min 134 W/m 16,1 km/h (3 Bft) 95,65 %
22.03.2021 11:20 7,2 C 7,2 C 5,0 C 80 % 1025,2 hPa 0,0 l/m 0 min 0 min 148 W/m 19,3 km/h (3 Bft) 95,74 %
22.03.2021 11:22 7,2 C 7,2 C 5,0 C 80 % 1025,3 hPa 0,0 l/m 0 min 0 min 172 W/m 29,0 km/h (5 Bft) 97,87 %
22.03.2021 11:24 7,2 C 7,2 C 5,0 C 80 % 1025,3 hPa 0,0 l/m 0 min 0 min 189 W/m 16,1 km/h (3 Bft) 97,87 %
22.03.2021 11:26 7,2 C 7,8 C 5,6 C 80 % 1025,3 hPa 0,0 l/m 0 min 0 min 200 W/m 22,5 km/h (4 Bft) 97,87 %
22.03.2021 11:28 7,3 C 7,8 C 5,6 C 80 % 1025,3 hPa 0,0 l/m 0 min 0 min 196 W/m 19,3 km/h (3 Bft) 97,87 %
22.03.2021 11:30 7,3 C 7,8 C 5,6 C 80 % 1025,4 hPa 0,0 l/m 0 min 0 min 178 W/m 16,1 km/h (3 Bft) 97,83 %
22.03.2021 11:32 7,3 C 7,8 C 5,6 C 80 % 1025,3 hPa 0,0 l/m 0 min 0 min 161 W/m 16,1 km/h (3 Bft) 97,87 %
22.03.2021 11:34 7,3 C 7,8 C 5,6 C 80 % 1025,3 hPa 0,0 l/m 0 min 0 min 142 W/m 9,7 km/h (2 Bft) 97,87 %
22.03.2021 11:36 7,4 C 7,8 C 5,6 C 80 % 1025,3 hPa 0,0 l/m 0 min 0 min 133 W/m 22,5 km/h (4 Bft) 95,74 %
22.03.2021 11:38 7,4 C 7,8 C 5,6 C 80 % 1025,4 hPa 0,0 l/m 0 min 0 min 142 W/m 25,7 km/h (4 Bft) 97,87 %
22.03.2021 11:40 7,4 C 7,8 C 5,6 C 80 % 1025,4 hPa 0,0 l/m 0 min 0 min 156 W/m 16,1 km/h (3 Bft) 100,00 %
22.03.2021 11:42 7,4 C 7,8 C 5,0 C 80 % 1025,4 hPa 0,0 l/m 0 min 0 min 165 W/m 29,0 km/h (5 Bft) 100,00 %
22.03.2021 11:44 7,3 C 7,8 C 5,0 C 80 % 1025,4 hPa 0,0 l/m 0 min 0 min 183 W/m 22,5 km/h (4 Bft) 100,00 %
22.03.2021 11:46 7,4 C 7,8 C 5,6 C 80 % 1025,3 hPa 0,0 l/m 0 min 0 min 197 W/m 19,3 km/h (3 Bft) 97,87 %
22.03.2021 11:48 7,4 C 7,8 C 5,6 C 79 % 1025,3 hPa 0,0 l/m 0 min 0 min 202 W/m 16,1 km/h (3 Bft) 100,00 %
22.03.2021 11:50 7,4 C 7,8 C 5,6 C 79 % 1025,3 hPa 0,0 l/m 0 min 0 min 208 W/m 19,3 km/h (3 Bft) 100,00 %
22.03.2021 11:52 7,4 C 8,3 C 5,6 C 79 % 1025,3 hPa 0,0 l/m 0 min 0 min 214 W/m 16,1 km/h (3 Bft) 97,87 %
22.03.2021 11:54 7,4 C 8,3 C 5,6 C 79 % 1025,3 hPa 0,0 l/m 0 min 0 min 221 W/m 16,1 km/h (3 Bft) 97,83 %
22.03.2021 11:56 7,5 C 8,3 C 6,1 C 79 % 1025,4 hPa 0,0 l/m 0 min 0 min 228 W/m 19,3 km/h (3 Bft) 97,87 %
22.03.2021 11:58 7,5 C 8,3 C 6,1 C 79 % 1025,4 hPa 0,0 l/m 0 min 0 min 228 W/m 12,9 km/h (3 Bft) 100,00 %
22.03.2021 12:00 7,5 C 8,3 C 6,1 C 79 % 1025,4 hPa 0,0 l/m 0 min 0 min 215 W/m 19,3 km/h (3 Bft) 100,00 %
22.03.2021 12:02 7,6 C 8,3 C 6,1 C 79 % 1025,4 hPa 0,0 l/m 0 min 0 min 198 W/m 12,9 km/h (3 Bft) 97,87 %
22.03.2021 12:04 7,6 C 8,3 C 6,1 C 79 % 1025,4 hPa 0,0 l/m 0 min 0 min 177 W/m 16,1 km/h (3 Bft) 97,87 %
22.03.2021 12:08 7,6 C 8,3 C 5,6 C 79 % 1025,4 hPa 0,0 l/m 0 min 0 min 158 W/m 22,5 km/h (4 Bft) 100,00 %
22.03.2021 12:10 7,6 C 7,8 C 5,6 C 79 % 1025,5 hPa 0,0 l/m 0 min 0 min 152 W/m 22,5 km/h (4 Bft) 100,00 %
22.03.2021 12:12 7,6 C 7,8 C 5,6 C 79 % 1025,5 hPa 0,0 l/m 0 min 0 min 146 W/m 12,9 km/h (3 Bft) 100,00 %
22.03.2021 12:14 7,6 C 7,8 C 5,6 C 79 % 1025,4 hPa 0,0 l/m 0 min 0 min 147 W/m 16,1 km/h (3 Bft) 97,87 %
22.03.2021 12:16 7,6 C 7,8 C 5,6 C 79 % 1025,5 hPa 0,0 l/m 0 min 0 min 161 W/m 12,9 km/h (3 Bft) 97,87 %
22.03.2021 12:18 7,6 C 7,8 C 5,6 C 79 % 1025,5 hPa 0,0 l/m 0 min 0 min 179 W/m 16,1 km/h (3 Bft) 97,87 %
22.03.2021 12:20 7,6 C 8,3 C 5,6 C 79 % 1025,5 hPa 0,0 l/m 0 min 0 min 193 W/m 9,7 km/h (2 Bft) 97,83 %
22.03.2021 12:22 7,6 C 7,8 C 5,6 C 79 % 1025,5 hPa 0,0 l/m 0 min 0 min 196 W/m 22,5 km/h (4 Bft) 97,87 %
22.03.2021 12:24 7,6 C 8,3 C 6,1 C 79 % 1025,5 hPa 0,0 l/m 0 min 0 min 199 W/m 12,9 km/h (3 Bft) 97,87 %
22.03.2021 12:26 7,6 C 8,3 C 6,1 C 79 % 1025,5 hPa 0,0 l/m 0 min 0 min 206 W/m 12,9 km/h (3 Bft) 95,74 %
22.03.2021 12:28 7,7 C 8,3 C 6,1 C 79 % 1025,6 hPa 0,0 l/m 0 min 0 min 226 W/m 12,9 km/h (3 Bft) 97,87 %
22.03.2021 12:30 7,7 C 8,3 C 6,1 C 80 % 1025,5 hPa 0,0 l/m 0 min 0 min 251 W/m 12,9 km/h (3 Bft) 97,87 %
22.03.2021 12:32 7,7 C 8,3 C 6,1 C 80 % 1025,5 hPa 0,0 l/m 0 min 0 min 283 W/m 16,1 km/h (3 Bft) 97,83 %
22.03.2021 12:34 7,8 C 8,3 C 6,7 C 81 % 1025,5 hPa 0,0 l/m 0 min 0 min 304 W/m 9,7 km/h (2 Bft) 74,47 %
22.03.2021 12:36 7,8 C 8,9 C 6,7 C 81 % 1025,5 hPa 0,0 l/m 2 min 0 min 328 W/m 12,9 km/h (3 Bft) 76,19 %
22.03.2021 12:38 7,9 C 8,9 C 7,3 C 82 % 1025,6 hPa 0,0 l/m 2 min 0 min 394 W/m 16,1 km/h (3 Bft) 97,87 %
22.03.2021 12:40 7,9 C 9,4 C 7,3 C 81 % 1025,5 hPa 0,0 l/m 2 min 0 min 383 W/m 19,3 km/h (3 Bft) 97,87 %
22.03.2021 12:42 8,0 C 9,4 C 7,3 C 81 % 1025,5 hPa 0,0 l/m 2 min 0 min 356 W/m 16,1 km/h (3 Bft) 97,87 %
22.03.2021 12:44 8,0 C 9,4 C 7,3 C 81 % 1025,6 hPa 0,0 l/m 2 min 0 min 347 W/m 12,9 km/h (3 Bft) 95,65 %
22.03.2021 12:46 8,0 C 9,4 C 7,3 C 81 % 1025,6 hPa 0,0 l/m 2 min 0 min 359 W/m 12,9 km/h (3 Bft) 93,62 %
22.03.2021 12:48 8,0 C 9,4 C 7,3 C 81 % 1025,6 hPa 0,0 l/m 2 min 0 min 338 W/m 12,9 km/h (3 Bft) 93,62 %
22.03.2021 12:50 8,1 C 9,4 C 7,3 C 81 % 1025,5 hPa 0,0 l/m 0 min 0 min 306 W/m 6,4 km/h (2 Bft) 97,87 %
22.03.2021 12:52 8,1 C 9,4 C 7,3 C 80 % 1025,6 hPa 0,0 l/m 0 min 0 min 298 W/m 22,5 km/h (4 Bft) 97,87 %
22.03.2021 12:54 8,1 C 8,9 C 6,7 C 80 % 1025,6 hPa 0,0 l/m 0 min 0 min 304 W/m 16,1 km/h (3 Bft) 98,00 %
22.03.2021 12:56 8,1 C 8,9 C 7,3 C 80 % 1025,6 hPa 0,0 l/m 0 min 0 min 307 W/m 6,4 km/h (2 Bft) 97,83 %
22.03.2021 12:58 8,1 C 8,9 C 6,7 C 80 % 1025,7 hPa 0,0 l/m 0 min 0 min 280 W/m 12,9 km/h (3 Bft) 97,87 %
22.03.2021 13:00 8,1 C 8,9 C 6,7 C 80 % 1025,6 hPa 0,0 l/m 0 min 0 min 254 W/m 6,4 km/h (2 Bft) 97,87 %
22.03.2021 13:02 8,1 C 8,3 C 6,7 C 80 % 1025,6 hPa 0,0 l/m 0 min 0 min 239 W/m 16,1 km/h (3 Bft) 97,87 %
22.03.2021 13:04 8,0 C 8,3 C 6,7 C 80 % 1025,7 hPa 0,0 l/m 0 min 0 min 226 W/m 12,9 km/h (3 Bft) 97,92 %
22.03.2021 13:06 8,0 C 8,3 C 6,7 C 80 % 1025,7 hPa 0,0 l/m 0 min 0 min 210 W/m 6,4 km/h (2 Bft) 97,83 %
22.03.2021 13:08 8,0 C 8,3 C 6,7 C 80 % 1025,6 hPa 0,0 l/m 0 min 0 min 196 W/m 9,7 km/h (2 Bft) 97,87 %
22.03.2021 13:10 8,0 C 8,3 C 6,1 C 80 % 1025,7 hPa 0,0 l/m 0 min 0 min 190 W/m 12,9 km/h (3 Bft) 95,74 %
22.03.2021 13:12 7,9 C 7,8 C 6,1 C 80 % 1025,7 hPa 0,0 l/m 0 min 0 min 183 W/m 9,7 km/h (2 Bft) 97,87 %
22.03.2021 13:14 7,9 C 7,8 C 6,1 C 80 % 1025,7 hPa 0,0 l/m 0 min 0 min 174 W/m 12,9 km/h (3 Bft) 97,87 %
22.03.2021 13:16 7,9 C 7,8 C 6,1 C 80 % 1025,7 hPa 0,0 l/m 0 min 0 min 166 W/m 16,1 km/h (3 Bft) 93,62 %
22.03.2021 13:18 7,9 C 7,8 C 6,1 C 80 % 1025,7 hPa 0,0 l/m 0 min 0 min 162 W/m 19,3 km/h (3 Bft) 97,83 %
22.03.2021 13:20 7,8 C 7,8 C 6,1 C 80 % 1025,7 hPa 0,0 l/m 0 min 0 min 163 W/m 22,5 km/h (4 Bft) 95,74 %
22.03.2021 13:22 7,8 C 7,8 C 6,1 C 80 % 1025,7 hPa 0,0 l/m 0 min 0 min 168 W/m 9,7 km/h (2 Bft) 97,87 %
22.03.2021 13:24 7,8 C 7,8 C 5,6 C 80 % 1025,6 hPa 0,0 l/m 0 min 0 min 172 W/m 9,7 km/h (2 Bft) 100,00 %
22.03.2021 13:26 7,8 C 7,8 C 5,6 C 80 % 1025,7 hPa 0,0 l/m 0 min 0 min 170 W/m 12,9 km/h (3 Bft) 100,00 %
22.03.2021 13:28 7,8 C 7,8 C 5,6 C 81 % 1025,7 hPa 0,0 l/m 0 min 0 min 170 W/m 9,7 km/h (2 Bft) 100,00 %
22.03.2021 13:30 7,8 C 7,8 C 5,6 C 81 % 1025,7 hPa 0,0 l/m 0 min 0 min 172 W/m 12,9 km/h (3 Bft) 100,00 %
22.03.2021 13:32 7,8 C 7,8 C 5,6 C 81 % 1025,7 hPa 0,0 l/m 0 min 0 min 172 W/m 9,7 km/h (2 Bft) 97,87 %
22.03.2021 13:34 7,8 C 7,8 C 5,6 C 81 % 1025,7 hPa 0,0 l/m 0 min 0 min 173 W/m 6,4 km/h (2 Bft) 97,87 %
22.03.2021 13:36 7,8 C 7,8 C 5,6 C 81 % 1025,7 hPa 0,0 l/m 0 min 0 min 174 W/m 12,9 km/h (3 Bft) 97,87 %
22.03.2021 13:38 7,8 C 7,8 C 5,6 C 81 % 1025,6 hPa 0,0 l/m 0 min 0 min 169 W/m 6,4 km/h (2 Bft) 95,35 %
22.03.2021 13:40 7,8 C 7,8 C 5,6 C 81 % 1025,6 hPa 0,0 l/m 0 min 0 min 161 W/m 6,4 km/h (2 Bft) 95,65 %
22.03.2021 13:42 7,8 C 7,8 C 5,6 C 81 % 1025,6 hPa 0,0 l/m 0 min 0 min 154 W/m 16,1 km/h (3 Bft) 95,74 %
22.03.2021 13:44 7,8 C 7,8 C 5,6 C 80 % 1025,6 hPa 0,0 l/m 0 min 0 min 147 W/m 12,9 km/h (3 Bft) 95,74 %
22.03.2021 13:46 7,8 C 7,8 C 5,6 C 79 % 1025,7 hPa 0,0 l/m 0 min 0 min 133 W/m 19,3 km/h (3 Bft) 95,74 %
22.03.2021 13:48 7,8 C 7,8 C 5,6 C 79 % 1025,6 hPa 0,0 l/m 0 min 0 min 116 W/m 16,1 km/h (3 Bft) 93,62 %
22.03.2021 13:50 7,8 C 7,8 C 5,6 C 79 % 1025,6 hPa 0,0 l/m 0 min 0 min 97 W/m 16,1 km/h (3 Bft) 95,74 %
22.03.2021 13:52 7,8 C 7,8 C 5,6 C 78 % 1025,6 hPa 0,0 l/m 0 min 0 min 85 W/m 16,1 km/h (3 Bft) 95,65 %
22.03.2021 13:54 7,8 C 7,8 C 5,6 C 78 % 1025,6 hPa 0,0 l/m 0 min 0 min 80 W/m 12,9 km/h (3 Bft) 95,74 %
22.03.2021 13:56 7,8 C 7,8 C 5,6 C 79 % 1025,6 hPa 0,0 l/m 0 min 0 min 74 W/m 6,4 km/h (2 Bft) 95,74 %
22.03.2021 13:58 7,8 C 7,8 C 5,6 C 79 % 1025,6 hPa 0,0 l/m 0 min 0 min 73 W/m 6,4 km/h (2 Bft) 91,49 %
22.03.2021 14:00 7,8 C 7,2 C 5,6 C 79 % 1025,6 hPa 0,0 l/m 0 min 0 min 77 W/m 19,3 km/h (3 Bft) 95,74 %
22.03.2021 14:02 7,8 C 7,2 C 5,0 C 79 % 1025,6 hPa 0,0 l/m 0 min 0 min 82 W/m 19,3 km/h (3 Bft) 95,74 %
22.03.2021 14:04 7,7 C 7,2 C 5,0 C 79 % 1025,5 hPa 0,0 l/m 0 min 0 min 86 W/m 19,3 km/h (3 Bft) 95,65 %
22.03.2021 14:06 7,6 C 7,2 C 5,0 C 79 % 1025,6 hPa 0,0 l/m 0 min 0 min 84 W/m 9,7 km/h (2 Bft) 95,74 %
22.03.2021 14:08 7,6 C 7,2 C 5,0 C 79 % 1025,6 hPa 0,0 l/m 0 min 0 min 78 W/m 12,9 km/h (3 Bft) 95,83 %
22.03.2021 14:10 7,6 C 7,2 C 5,0 C 79 % 1025,5 hPa 0,0 l/m 0 min 0 min 77 W/m 9,7 km/h (2 Bft) 95,74 %
22.03.2021 14:12 7,5 C 7,2 C 5,0 C 79 % 1025,5 hPa 0,0 l/m 0 min 0 min 80 W/m 12,9 km/h (3 Bft) 93,62 %
22.03.2021 14:14 7,5 C 7,2 C 5,0 C 80 % 1025,6 hPa 0,0 l/m 0 min 0 min 80 W/m 9,7 km/h (2 Bft) 95,74 %
22.03.2021 14:16 7,5 C 7,2 C 5,0 C 80 % 1025,5 hPa 0,0 l/m 0 min 0 min 82 W/m 6,4 km/h (2 Bft) 95,65 %
22.03.2021 14:18 7,5 C 7,2 C 5,0 C 80 % 1025,5 hPa 0,0 l/m 0 min 0 min 86 W/m 9,7 km/h (2 Bft) 93,62 %
22.03.2021 14:20 7,5 C 7,2 C 5,0 C 80 % 1025,5 hPa 0,0 l/m 0 min 0 min 91 W/m 9,7 km/h (2 Bft) 97,87 %
22.03.2021 14:22 7,5 C 7,2 C 5,0 C 80 % 1025,5 hPa 0,0 l/m 0 min 0 min 95 W/m 12,9 km/h (3 Bft) 57,45 %
22.03.2021 14:24 7,5 C 7,2 C 5,0 C 80 % 1025,5 hPa 0,0 l/m 0 min 0 min 102 W/m 16,1 km/h (3 Bft) 97,87 %
22.03.2021 14:26 7,5 C 7,2 C 5,0 C 80 % 1025,5 hPa 0,0 l/m 0 min 0 min 106 W/m 16,1 km/h (3 Bft) 97,87 %
22.03.2021 14:28 7,5 C 7,2 C 5,0 C 80 % 1025,5 hPa 0,0 l/m 0 min 0 min 112 W/m 16,1 km/h (3 Bft) 97,83 %
22.03.2021 14:30 7,5 C 7,2 C 5,0 C 79 % 1025,5 hPa 0,0 l/m 0 min 0 min 124 W/m 6,4 km/h (2 Bft) 95,74 %
22.03.2021 14:32 7,5 C 7,2 C 5,0 C 79 % 1025,5 hPa 0,0 l/m 0 min 0 min 134 W/m 12,9 km/h (3 Bft) 97,87 %
22.03.2021 14:34 7,5 C 7,8 C 5,6 C 79 % 1025,5 hPa 0,0 l/m 0 min 0 min 144 W/m 16,1 km/h (3 Bft) 97,87 %
22.03.2021 14:36 7,5 C 7,8 C 5,6 C 79 % 1025,4 hPa 0,0 l/m 0 min 0 min 152 W/m 22,5 km/h (4 Bft) 97,87 %
22.03.2021 14:38 7,5 C 7,8 C 5,6 C 78 % 1025,4 hPa 0,0 l/m 0 min 0 min 156 W/m 22,5 km/h (4 Bft) 95,65 %
22.03.2021 14:40 7,5 C 7,8 C 5,6 C 78 % 1025,4 hPa 0,0 l/m 0 min 0 min 158 W/m 16,1 km/h (3 Bft) 97,78 %
22.03.2021 14:42 7,6 C 7,8 C 5,6 C 78 % 1025,4 hPa 0,0 l/m 0 min 0 min 161 W/m 9,7 km/h (2 Bft) 100,00 %
22.03.2021 14:44 7,6 C 7,8 C 5,6 C 78 % 1025,4 hPa 0,0 l/m 0 min 0 min 164 W/m 6,4 km/h (2 Bft) 100,00 %
22.03.2021 14:46 7,6 C 7,8 C 5,6 C 78 % 1025,4 hPa 0,0 l/m 0 min 0 min 165 W/m 12,9 km/h (3 Bft) 100,00 %
22.03.2021 14:48 7,7 C 7,8 C 5,6 C 78 % 1025,4 hPa 0,0 l/m 0 min 0 min 166 W/m 9,7 km/h (2 Bft) 100,00 %
22.03.2021 14:50 7,7 C 7,8 C 5,6 C 78 % 1025,4 hPa 0,0 l/m 0 min 0 min 169 W/m 9,7 km/h (2 Bft) 100,00 %
22.03.2021 14:52 7,7 C 7,8 C 5,6 C 79 % 1025,4 hPa 0,0 l/m 0 min 0 min 171 W/m 12,9 km/h (3 Bft) 100,00 %
22.03.2021 14:54 7,8 C 7,8 C 5,6 C 79 % 1025,4 hPa 0,0 l/m 0 min 0 min 173 W/m 12,9 km/h (3 Bft) 100,00 %
22.03.2021 14:56 7,8 C 8,3 C 5,6 C 79 % 1025,4 hPa 0,0 l/m 0 min 0 min 178 W/m 9,7 km/h (2 Bft) 97,87 %
22.03.2021 14:58 7,8 C 8,3 C 6,1 C 79 % 1025,3 hPa 0,0 l/m 0 min 0 min 179 W/m 12,9 km/h (3 Bft) 97,87 %
22.03.2021 15:00 7,8 C 8,3 C 6,1 C 79 % 1025,3 hPa 0,0 l/m 0 min 0 min 179 W/m 12,9 km/h (3 Bft) 100,00 %
22.03.2021 15:02 7,9 C 8,3 C 6,1 C 79 % 1025,3 hPa 0,0 l/m 0 min 0 min 183 W/m 12,9 km/h (3 Bft) 100,00 %
22.03.2021 15:04 7,9 C 8,3 C 6,1 C 79 % 1025,3 hPa 0,0 l/m 0 min 0 min 185 W/m 6,4 km/h (2 Bft) 100,00 %
22.03.2021 15:06 7,9 C 8,3 C 6,1 C 79 % 1025,3 hPa 0,0 l/m 0 min 0 min 183 W/m 12,9 km/h (3 Bft) 100,00 %
22.03.2021 15:08 7,9 C 8,3 C 6,1 C 79 % 1025,3 hPa 0,0 l/m 0 min 0 min 179 W/m 6,4 km/h (2 Bft) 100,00 %
22.03.2021 15:10 7,9 C 8,3 C 6,1 C 79 % 1025,3 hPa 0,0 l/m 0 min 0 min 175 W/m 9,7 km/h (2 Bft) 100,00 %
22.03.2021 15:12 8,0 C 8,3 C 6,1 C 79 % 1025,3 hPa 0,0 l/m 0 min 0 min 176 W/m 9,7 km/h (2 Bft) 100,00 %
22.03.2021 15:14 8,0 C 8,3 C 6,1 C 78 % 1025,3 hPa 0,0 l/m 0 min 0 min 184 W/m 6,4 km/h (2 Bft) 100,00 %
22.03.2021 15:16 8,0 C 8,3 C 6,1 C 79 % 1025,3 hPa 0,0 l/m 0 min 0 min 190 W/m 6,4 km/h (2 Bft) 97,83 %
22.03.2021 15:18 8,0 C 8,3 C 6,1 C 78 % 1025,2 hPa 0,0 l/m 0 min 0 min 183 W/m 9,7 km/h (2 Bft) 100,00 %
22.03.2021 15:20 8,0 C 8,3 C 6,1 C 78 % 1025,2 hPa 0,0 l/m 0 min 0 min 175 W/m 16,1 km/h (3 Bft) 100,00 %
22.03.2021 15:22 8,1 C 8,3 C 6,1 C 78 % 1025,3 hPa 0,0 l/m 0 min 0 min 170 W/m 12,9 km/h (3 Bft) 100,00 %
22.03.2021 15:24 8,1 C 8,3 C 6,1 C 78 % 1025,2 hPa 0,0 l/m 0 min 0 min 172 W/m 9,7 km/h (2 Bft) 100,00 %
22.03.2021 15:26 8,1 C 8,3 C 6,1 C 78 % 1025,3 hPa 0,0 l/m 0 min 0 min 178 W/m 12,9 km/h (3 Bft) 100,00 %
22.03.2021 15:28 8,1 C 8,3 C 6,1 C 78 % 1025,2 hPa 0,0 l/m 0 min 0 min 180 W/m 12,9 km/h (3 Bft) 97,87 %
22.03.2021 15:30 8,1 C 8,3 C 6,1 C 78 % 1025,2 hPa 0,0 l/m 0 min 0 min 178 W/m 12,9 km/h (3 Bft) 100,00 %
22.03.2021 15:32 8,1 C 8,3 C 6,1 C 78 % 1025,3 hPa 0,0 l/m 0 min 0 min 172 W/m 16,1 km/h (3 Bft) 97,92 %
22.03.2021 15:34 8,1 C 8,3 C 6,1 C 78 % 1025,2 hPa 0,0 l/m 0 min 0 min 165 W/m 9,7 km/h (2 Bft) 100,00 %
22.03.2021 15:36 8,1 C 8,3 C 6,1 C 78 % 1025,2 hPa 0,0 l/m 0 min 0 min 158 W/m 6,4 km/h (2 Bft) 95,74 %
22.03.2021 15:38 8,1 C 8,3 C 6,1 C 78 % 1025,2 hPa 0,0 l/m 0 min 0 min 145 W/m 12,9 km/h (3 Bft) 100,00 %
22.03.2021 15:40 8,1 C 8,3 C 6,1 C 78 % 1025,3 hPa 0,0 l/m 0 min 0 min 131 W/m 6,4 km/h (2 Bft) 100,00 %
22.03.2021 15:42 8,1 C 8,3 C 6,1 C 77 % 1025,3 hPa 0,0 l/m 0 min 0 min 125 W/m 16,1 km/h (3 Bft) 100,00 %
22.03.2021 15:44 8,1 C 7,8 C 5,6 C 77 % 1025,2 hPa 0,0 l/m 0 min 0 min 122 W/m 16,1 km/h (3 Bft) 97,83 %
22.03.2021 15:46 8,1 C 7,8 C 5,6 C 77 % 1025,2 hPa 0,0 l/m 0 min 0 min 117 W/m 16,1 km/h (3 Bft) 97,87 %
22.03.2021 15:48 8,0 C 7,8 C 5,6 C 77 % 1025,2 hPa 0,0 l/m 0 min 0 min 108 W/m 12,9 km/h (3 Bft) 100,00 %
22.03.2021 15:50 8,0 C 7,8 C 5,6 C 77 % 1025,3 hPa 0,0 l/m 0 min 0 min 97 W/m 12,9 km/h (3 Bft) 97,87 %
22.03.2021 15:52 8,0 C 7,8 C 5,6 C 77 % 1025,2 hPa 0,0 l/m 0 min 0 min 92 W/m 16,1 km/h (3 Bft) 93,62 %
22.03.2021 15:54 8,0 C 7,8 C 5,6 C 77 % 1025,3 hPa 0,0 l/m 0 min 0 min 90 W/m 9,7 km/h (2 Bft) 95,74 %
22.03.2021 15:56 8,0 C 7,8 C 5,6 C 77 % 1025,2 hPa 0,0 l/m 0 min 0 min 86 W/m 9,7 km/h (2 Bft) 97,83 %
22.03.2021 15:58 8,0 C 7,8 C 5,6 C 77 % 1025,3 hPa 0,0 l/m 0 min 0 min 80 W/m 12,9 km/h (3 Bft) 97,87 %
22.03.2021 16:00 8,0 C 7,8 C 5,6 C 77 % 1025,3 hPa 0,0 l/m 0 min 0 min 76 W/m 9,7 km/h (2 Bft) 95,74 %
22.03.2021 16:02 8,0 C 7,8 C 5,6 C 77 % 1025,3 hPa 0,0 l/m 0 min 0 min 73 W/m 6,4 km/h (2 Bft) 97,87 %
22.03.2021 16:04 8,0 C 7,8 C 5,6 C 77 % 1025,3 hPa 0,0 l/m 0 min 0 min 72 W/m 19,3 km/h (3 Bft) 97,92 %
22.03.2021 16:06 8,0 C 7,8 C 5,6 C 77 % 1025,2 hPa 0,0 l/m 0 min 0 min 72 W/m 12,9 km/h (3 Bft) 97,83 %
22.03.2021 16:08 8,0 C 7,8 C 5,6 C 77 % 1025,2 hPa 0,0 l/m 0 min 0 min 75 W/m 12,9 km/h (3 Bft) 97,87 %
22.03.2021 16:10 7,9 C 7,8 C 5,0 C 77 % 1025,2 hPa 0,0 l/m 0 min 0 min 77 W/m 16,1 km/h (3 Bft) 95,74 %
22.03.2021 16:12 7,9 C 7,8 C 5,0 C 77 % 1025,2 hPa 0,0 l/m 0 min 0 min 79 W/m 9,7 km/h (2 Bft) 97,87 %
22.03.2021 16:14 7,9 C 7,8 C 5,6 C 77 % 1025,2 hPa 0,0 l/m 0 min 0 min 81 W/m 9,7 km/h (2 Bft) 97,87 %
22.03.2021 16:16 7,9 C 7,8 C 5,6 C 77 % 1025,2 hPa 0,0 l/m 0 min 0 min 81 W/m 9,7 km/h (2 Bft) 97,87 %
22.03.2021 16:18 7,9 C 7,8 C 5,6 C 77 % 1025,2 hPa 0,0 l/m 0 min 0 min 84 W/m 9,7 km/h (2 Bft) 95,65 %
22.03.2021 16:20 7,9 C 7,8 C 5,6 C 77 % 1025,2 hPa 0,0 l/m 0 min 0 min 84 W/m 16,1 km/h (3 Bft) 95,74 %
22.03.2021 16:22 7,9 C 7,8 C 5,6 C 77 % 1025,3 hPa 0,0 l/m 0 min 0 min 83 W/m 6,4 km/h (2 Bft) 95,74 %
22.03.2021 16:24 7,9 C 7,8 C 5,6 C 77 % 1025,2 hPa 0,0 l/m 0 min 0 min 84 W/m 12,9 km/h (3 Bft) 95,74 %
22.03.2021 16:26 7,9 C 7,8 C 5,6 C 76 % 1025,2 hPa 0,0 l/m 0 min 0 min 83 W/m 12,9 km/h (3 Bft) 95,74 %
22.03.2021 16:28 7,9 C 7,8 C 5,6 C 76 % 1025,2 hPa 0,0 l/m 0 min 0 min 81 W/m 9,7 km/h (2 Bft) 95,74 %
22.03.2021 16:30 7,9 C 7,8 C 5,0 C 76 % 1025,2 hPa 0,0 l/m 0 min 0 min 78 W/m 12,9 km/h (3 Bft) 95,74 %
22.03.2021 16:32 7,9 C 7,8 C 5,0 C 76 % 1025,2 hPa 0,0 l/m 0 min 0 min 77 W/m 6,4 km/h (2 Bft) 95,65 %
22.03.2021 16:34 7,9 C 7,8 C 5,0 C 77 % 1025,2 hPa 0,0 l/m 0 min 0 min 77 W/m 12,9 km/h (3 Bft) 95,74 %
22.03.2021 16:36 7,9 C 7,8 C 5,0 C 77 % 1025,2 hPa 0,0 l/m 0 min 0 min 77 W/m 9,7 km/h (2 Bft) 93,62 %
22.03.2021 16:38 7,9 C 7,8 C 5,0 C 78 % 1025,2 hPa 0,0 l/m 0 min 0 min 77 W/m 12,9 km/h (3 Bft) 95,74 %
22.03.2021 16:40 7,9 C 7,8 C 5,0 C 78 % 1025,2 hPa 0,0 l/m 0 min 0 min 77 W/m 3,2 km/h (1 Bft) 93,62 %
22.03.2021 16:42 7,9 C 7,8 C 5,0 C 78 % 1025,2 hPa 0,0 l/m 0 min 0 min 78 W/m 6,4 km/h (2 Bft) 97,83 %
22.03.2021 16:44 7,9 C 7,8 C 5,0 C 78 % 1025,2 hPa 0,0 l/m 0 min 0 min 82 W/m 9,7 km/h (2 Bft) 98,31 %
22.03.2021 16:46 7,9 C 7,8 C 5,0 C 78 % 1025,2 hPa 0,0 l/m 0 min 0 min 83 W/m 6,4 km/h (2 Bft) 95,74 %
22.03.2021 16:48 7,9 C 7,8 C 5,6 C 78 % 1025,2 hPa 0,0 l/m 0 min 0 min 84 W/m 6,4 km/h (2 Bft) 95,74 %
22.03.2021 16:50 7,9 C 7,8 C 5,6 C 78 % 1025,2 hPa 0,0 l/m 0 min 0 min 84 W/m 12,9 km/h (3 Bft) 97,83 %
22.03.2021 16:52 7,9 C 7,8 C 5,6 C 78 % 1025,2 hPa 0,0 l/m 0 min 0 min 84 W/m 6,4 km/h (2 Bft) 97,87 %
22.03.2021 16:54 7,9 C 7,8 C 5,6 C 78 % 1025,2 hPa 0,0 l/m 0 min 0 min 86 W/m 9,7 km/h (2 Bft) 97,87 %
22.03.2021 16:56 7,9 C 7,8 C 5,6 C 78 % 1025,2 hPa 0,0 l/m 0 min 0 min 88 W/m 6,4 km/h (2 Bft) 97,87 %
22.03.2021 16:58 7,9 C 7,8 C 5,6 C 78 % 1025,1 hPa 0,0 l/m 0 min 0 min 87 W/m 9,7 km/h (2 Bft) 97,87 %
22.03.2021 17:00 7,9 C 7,8 C 5,6 C 78 % 1025,2 hPa 0,0 l/m 0 min 0 min 85 W/m 6,4 km/h (2 Bft) 95,74 %
22.03.2021 17:02 7,9 C 7,8 C 5,0 C 78 % 1025,1 hPa 0,0 l/m 0 min 0 min 84 W/m 12,9 km/h (3 Bft) 97,14 %
22.03.2021 17:04 7,9 C 7,8 C 5,0 C 78 % 1025,2 hPa 0,0 l/m 0 min 0 min 83 W/m 9,7 km/h (2 Bft) 100,00 %
22.03.2021 17:06 7,9 C 7,8 C 5,0 C 78 % 1025,2 hPa 0,0 l/m 0 min 0 min 83 W/m 9,7 km/h (2 Bft) 97,83 %
22.03.2021 17:08 7,9 C 7,8 C 5,0 C 78 % 1025,1 hPa 0,0 l/m 0 min 0 min 83 W/m 9,7 km/h (2 Bft) 100,00 %
22.03.2021 17:10 7,9 C 7,8 C 5,0 C 78 % 1025,2 hPa 0,0 l/m 0 min 0 min 80 W/m 12,9 km/h (3 Bft) 100,00 %
22.03.2021 17:12 7,9 C 7,8 C 5,0 C 78 % 1025,2 hPa 0,0 l/m 0 min 0 min 77 W/m 6,4 km/h (2 Bft) 100,00 %
22.03.2021 17:14 7,9 C 7,8 C 5,6 C 78 % 1025,2 hPa 0,0 l/m 0 min 0 min 71 W/m 6,4 km/h (2 Bft) 100,00 %
22.03.2021 17:16 7,9 C 7,8 C 5,6 C 78 % 1025,2 hPa 0,0 l/m 0 min 0 min 69 W/m 6,4 km/h (2 Bft) 97,87 %
22.03.2021 17:18 7,9 C 7,8 C 5,6 C 78 % 1025,2 hPa 0,0 l/m 0 min 0 min 67 W/m 6,4 km/h (2 Bft) 100,00 %
22.03.2021 17:20 7,9 C 7,8 C 5,6 C 78 % 1025,2 hPa 0,0 l/m 0 min 0 min 64 W/m 12,9 km/h (3 Bft) 100,00 %
22.03.2021 17:22 7,9 C 7,8 C 5,0 C 78 % 1025,3 hPa 0,0 l/m 0 min 0 min 60 W/m 9,7 km/h (2 Bft) 100,00 %
22.03.2021 17:24 7,9 C 7,8 C 5,0 C 78 % 1025,3 hPa 0,0 l/m 0 min 0 min 56 W/m 12,9 km/h (3 Bft) 97,87 %
22.03.2021 17:26 7,9 C 7,8 C 5,0 C 78 % 1025,3 hPa 0,0 l/m 0 min 0 min 55 W/m 9,7 km/h (2 Bft) 97,87 %
22.03.2021 17:28 7,9 C 7,2 C 5,0 C 78 % 1025,3 hPa 0,0 l/m 0 min 0 min 54 W/m 6,4 km/h (2 Bft) 97,83 %
22.03.2021 17:30 7,9 C 7,2 C 5,0 C 78 % 1025,3 hPa 0,0 l/m 0 min 0 min 54 W/m 6,4 km/h (2 Bft) 95,74 %
22.03.2021 17:32 7,9 C 7,2 C 5,0 C 77 % 1025,4 hPa 0,0 l/m 0 min 0 min 53 W/m 6,4 km/h (2 Bft) 97,87 %
22.03.2021 17:34 7,9 C 7,2 C 5,0 C 77 % 1025,3 hPa 0,0 l/m 0 min 0 min 49 W/m 6,4 km/h (2 Bft) 93,62 %
22.03.2021 17:36 7,8 C 7,2 C 5,0 C 77 % 1025,3 hPa 0,0 l/m 0 min 0 min 46 W/m 3,2 km/h (1 Bft) 97,87 %
22.03.2021 17:38 7,9 C 7,2 C 5,0 C 77 % 1025,3 hPa 0,0 l/m 0 min 0 min 46 W/m 6,4 km/h (2 Bft) 98,28 %
22.03.2021 17:40 7,8 C 7,2 C 5,0 C 77 % 1025,4 hPa 0,0 l/m 0 min 0 min 44 W/m 9,7 km/h (2 Bft) 97,14 %
22.03.2021 17:42 7,8 C 7,2 C 5,0 C 77 % 1025,4 hPa 0,0 l/m 0 min 0 min 43 W/m 9,7 km/h (2 Bft) 97,87 %
22.03.2021 17:44 7,8 C 7,2 C 5,0 C 77 % 1025,4 hPa 0,0 l/m 0 min 0 min 42 W/m 9,7 km/h (2 Bft) 97,87 %
22.03.2021 17:46 7,8 C 7,2 C 5,0 C 77 % 1025,4 hPa 0,0 l/m 0 min 0 min 42 W/m 12,9 km/h (3 Bft) 97,87 %
22.03.2021 17:48 7,8 C 7,2 C 5,0 C 77 % 1025,4 hPa 0,0 l/m 0 min 0 min 42 W/m 6,4 km/h (2 Bft) 97,87 %
22.03.2021 17:50 7,8 C 7,2 C 5,0 C 77 % 1025,4 hPa 0,0 l/m 0 min 0 min 42 W/m 9,7 km/h (2 Bft) 97,87 %
22.03.2021 17:52 7,8 C 7,2 C 5,0 C 76 % 1025,4 hPa 0,0 l/m 0 min 0 min 43 W/m 6,4 km/h (2 Bft) 97,83 %
22.03.2021 17:54 7,8 C 7,2 C 5,0 C 76 % 1025,4 hPa 0,0 l/m 0 min 0 min 44 W/m 6,4 km/h (2 Bft) 95,74 %
22.03.2021 17:56 7,8 C 7,2 C 5,0 C 76 % 1025,3 hPa 0,0 l/m 0 min 0 min 43 W/m 9,7 km/h (2 Bft) 100,00 %
22.03.2021 17:58 7,8 C 7,2 C 5,0 C 77 % 1025,3 hPa 0,0 l/m 0 min 0 min 40 W/m 3,2 km/h (1 Bft) 100,00 %
22.03.2021 18:00 7,8 C 7,2 C 5,0 C 77 % 1025,4 hPa 0,0 l/m 0 min 0 min 37 W/m 6,4 km/h (2 Bft) 100,00 %
22.03.2021 18:02 7,8 C 7,2 C 5,0 C 76 % 1025,4 hPa 0,0 l/m 0 min 0 min 34 W/m 6,4 km/h (2 Bft) 95,74 %
22.03.2021 18:04 7,7 C 7,2 C 5,0 C 76 % 1025,3 hPa 0,0 l/m 0 min 0 min 32 W/m 6,4 km/h (2 Bft) 97,87 %
22.03.2021 18:08 7,7 C 7,2 C 5,0 C 77 % 1025,4 hPa 0,0 l/m 0 min 0 min 29 W/m 9,7 km/h (2 Bft) 96,81 %
22.03.2021 18:10 7,7 C 7,2 C 5,0 C 77 % 1025,3 hPa 0,0 l/m 0 min 0 min 26 W/m 6,4 km/h (2 Bft) 97,87 %
22.03.2021 18:12 7,7 C 7,2 C 5,0 C 77 % 1025,4 hPa 0,0 l/m 0 min 0 min 25 W/m 6,4 km/h (2 Bft) 97,87 %
22.03.2021 18:14 7,6 C 7,2 C 4,5 C 77 % 1025,4 hPa 0,0 l/m 0 min 0 min 23 W/m 9,7 km/h (2 Bft) 97,87 %
22.03.2021 18:16 7,6 C 7,2 C 4,5 C 77 % 1025,4 hPa 0,0 l/m 0 min 0 min 21 W/m 6,4 km/h (2 Bft) 97,83 %
22.03.2021 18:18 7,6 C 7,2 C 4,5 C 77 % 1025,4 hPa 0,0 l/m 0 min 0 min 19 W/m 6,4 km/h (2 Bft) 95,74 %
22.03.2021 18:20 7,6 C 7,2 C 4,5 C 77 % 1025,4 hPa 0,0 l/m 0 min 0 min 18 W/m 9,7 km/h (2 Bft) 97,87 %
22.03.2021 18:22 7,6 C 6,7 C 4,5 C 77 % 1025,5 hPa 0,0 l/m 0 min 0 min 16 W/m 3,2 km/h (1 Bft) 95,74 %
22.03.2021 18:24 7,6 C 6,7 C 4,5 C 78 % 1025,5 hPa 0,0 l/m 0 min 0 min 15 W/m 3,2 km/h (1 Bft) 97,87 %
22.03.2021 18:26 7,6 C 6,7 C 4,5 C 78 % 1025,5 hPa 0,0 l/m 0 min 0 min 14 W/m 9,7 km/h (2 Bft) 97,87 %
22.03.2021 18:28 7,5 C 6,7 C 4,5 C 77 % 1025,5 hPa 0,0 l/m 0 min 0 min 13 W/m 3,2 km/h (1 Bft) 97,83 %
22.03.2021 18:30 7,5 C 6,7 C 4,5 C 77 % 1025,5 hPa 0,0 l/m 0 min 0 min 12 W/m 6,4 km/h (2 Bft) 97,87 %
22.03.2021 18:32 7,5 C 6,7 C 4,5 C 77 % 1025,5 hPa 0,0 l/m 0 min 0 min 11 W/m 3,2 km/h (1 Bft) 95,74 %
22.03.2021 18:34 7,5 C 6,7 C 4,5 C 77 % 1025,5 hPa 0,0 l/m 0 min 0 min 11 W/m 3,2 km/h (1 Bft) 97,87 %
22.03.2021 18:36 7,5 C 6,7 C 4,5 C 77 % 1025,5 hPa 0,0 l/m 0 min 0 min 10 W/m 3,2 km/h (1 Bft) 97,87 %
22.03.2021 18:38 7,5 C 6,7 C 4,5 C 77 % 1025,5 hPa 0,0 l/m 0 min 0 min 8 W/m 3,2 km/h (1 Bft) 100,00 %
22.03.2021 18:40 7,4 C 6,7 C 4,5 C 78 % 1025,6 hPa 0,0 l/m 0 min 0 min 7 W/m 6,4 km/h (2 Bft) 100,00 %
22.03.2021 18:42 7,4 C 6,7 C 4,5 C 78 % 1025,6 hPa 0,0 l/m 0 min 0 min 7 W/m 3,2 km/h (1 Bft) 95,74 %
22.03.2021 18:44 7,4 C 6,7 C 4,5 C 78 % 1025,6 hPa 0,0 l/m 0 min 0 min 5 W/m 3,2 km/h (1 Bft) 97,87 %
22.03.2021 18:46 7,4 C 6,7 C 4,5 C 78 % 1025,6 hPa 0,0 l/m 0 min 0 min 5 W/m 3,2 km/h (1 Bft) 100,00 %
22.03.2021 18:48 7,4 C 6,7 C 4,5 C 78 % 1025,6 hPa 0,0 l/m 0 min 0 min 0 W/m 3,2 km/h (1 Bft) 97,87 %
22.03.2021 18:50 7,3 C 6,7 C 4,5 C 78 % 1025,6 hPa 0,0 l/m 0 min 0 min 0 W/m 3,2 km/h (1 Bft) 97,87 %
22.03.2021 18:52 7,3 C 6,7 C 4,5 C 78 % 1025,7 hPa 0,0 l/m 0 min 0 min 0 W/m 3,2 km/h (1 Bft) 97,87 %
22.03.2021 18:54 7,3 C 6,7 C 4,5 C 78 % 1025,7 hPa 0,0 l/m 0 min 0 min 0 W/m 3,2 km/h (1 Bft) 91,43 %
22.03.2021 18:56 7,3 C 6,7 C 4,5 C 78 % 1025,7 hPa 0,0 l/m 0 min 0 min 0 W/m 0,0 km/h (0 Bft) 95,74 %
22.03.2021 18:58 7,3 C 6,7 C 3,9 C 79 % 1025,7 hPa 0,0 l/m 0 min 0 min 0 W/m 3,2 km/h (1 Bft) 97,87 %
22.03.2021 19:00 7,3 C 6,7 C 3,9 C 79 % 1025,7 hPa 0,0 l/m 0 min 0 min 0 W/m 3,2 km/h (1 Bft) 97,87 %
22.03.2021 19:02 7,3 C 6,7 C 3,9 C 79 % 1025,7 hPa 0,0 l/m 0 min 0 min 0 W/m 3,2 km/h (1 Bft) 95,74 %
22.03.2021 19:04 7,3 C 6,7 C 3,9 C 79 % 1025,8 hPa 0,0 l/m 0 min 0 min 0 W/m 3,2 km/h (1 Bft) 95,65 %
22.03.2021 19:06 7,3 C 6,7 C 3,9 C 79 % 1025,8 hPa 0,0 l/m 0 min 0 min 0 W/m 0,0 km/h (0 Bft) 95,74 %
22.03.2021 19:08 7,3 C 6,7 C 3,9 C 79 % 1025,8 hPa 0,0 l/m 0 min 0 min 0 W/m 0,0 km/h (0 Bft) 95,74 %
22.03.2021 19:10 7,3 C 6,7 C 3,9 C 79 % 1025,8 hPa 0,0 l/m 0 min 0 min 0 W/m 0,0 km/h (0 Bft) 93,62 %
22.03.2021 19:12 7,3 C 6,7 C 3,9 C 78 % 1025,9 hPa 0,0 l/m 0 min 0 min 0 W/m 0,0 km/h (0 Bft) 95,74 %
22.03.2021 19:14 7,3 C 6,7 C 3,9 C 79 % 1025,9 hPa 0,0 l/m 0 min 0 min 0 W/m 0,0 km/h (0 Bft) 95,74 %
22.03.2021 19:16 7,3 C 6,7 C 3,9 C 79 % 1025,8 hPa 0,0 l/m 0 min 0 min 0 W/m 0,0 km/h (0 Bft) 95,65 %
22.03.2021 19:18 7,3 C 6,7 C 3,9 C 79 % 1025,9 hPa 0,0 l/m 0 min 0 min 0 W/m 0,0 km/h (0 Bft) 93,62 %
22.03.2021 19:20 7,3 C 6,1 C 3,9 C 79 % 1025,9 hPa 0,0 l/m 0 min 0 min 0 W/m 0,0 km/h (0 Bft) 93,62 %
22.03.2021 19:22 7,2 C 6,1 C 3,9 C 79 % 1025,9 hPa 0,0 l/m 0 min 0 min 0 W/m 0,0 km/h (0 Bft) 95,74 %
22.03.2021 19:24 7,3 C 6,1 C 3,9 C 79 % 1026,0 hPa 0,0 l/m 0 min 0 min 0 W/m 0,0 km/h (0 Bft) 93,62 %
22.03.2021 19:26 7,2 C 6,1 C 3,9 C 79 % 1026,0 hPa 0,0 l/m 0 min 0 min 0 W/m 0,0 km/h (0 Bft) 91,30 %
22.03.2021 19:28 7,2 C 6,7 C 3,9 C 79 % 1026,0 hPa 0,0 l/m 0 min 0 min 0 W/m 3,2 km/h (1 Bft) 95,74 %
22.03.2021 19:30 7,2 C 6,1 C 3,9 C 79 % 1026,1 hPa 0,0 l/m 0 min 0 min 0 W/m 3,2 km/h (1 Bft) 95,74 %
22.03.2021 19:32 7,2 C 6,1 C 3,9 C 79 % 1026,1 hPa 0,0 l/m 0 min 0 min 0 W/m 0,0 km/h (0 Bft) 95,74 %
22.03.2021 19:34 7,1 C 6,1 C 3,9 C 79 % 1026,2 hPa 0,0 l/m 0 min 0 min 0 W/m 0,0 km/h (0 Bft) 97,87 %
22.03.2021 19:36 7,1 C 6,1 C 3,9 C 79 % 1026,2 hPa 0,0 l/m 0 min 0 min 0 W/m 0,0 km/h (0 Bft) 97,87 %
22.03.2021 19:38 7,1 C 6,1 C 3,9 C 79 % 1026,2 hPa 0,0 l/m 0 min 0 min 0 W/m 0,0 km/h (0 Bft) 95,65 %
22.03.2021 19:40 7,1 C 6,1 C 3,9 C 79 % 1026,2 hPa 0,0 l/m 0 min 0 min 0 W/m 0,0 km/h (0 Bft) 97,87 %
22.03.2021 19:42 7,1 C 6,1 C 3,9 C 80 % 1026,2 hPa 0,0 l/m 0 min 0 min 0 W/m 0,0 km/h (0 Bft) 97,87 %
22.03.2021 19:44 7,1 C 6,1 C 3,9 C 80 % 1026,2 hPa 0,0 l/m 0 min 0 min 0 W/m 0,0 km/h (0 Bft) 95,74 %
22.03.2021 19:46 7,1 C 6,1 C 3,9 C 80 % 1026,2 hPa 0,0 l/m 0 min 0 min 0 W/m 0,0 km/h (0 Bft) 97,87 %
22.03.2021 19:48 7,0 C 6,1 C 3,9 C 80 % 1026,2 hPa 0,0 l/m 0 min 0 min 0 W/m 0,0 km/h (0 Bft) 97,83 %
22.03.2021 19:50 7,0 C 6,1 C 3,9 C 80 % 1026,2 hPa 0,0 l/m 0 min 0 min 0 W/m 0,0 km/h (0 Bft) 95,74 %
22.03.2021 19:52 7,0 C 6,1 C 3,9 C 80 % 1026,2 hPa 0,0 l/m 0 min 0 min 0 W/m 0,0 km/h (0 Bft) 97,87 %
22.03.2021 19:54 7,0 C 6,1 C 3,9 C 80 % 1026,2 hPa 0,0 l/m 0 min 0 min 0 W/m 0,0 km/h (0 Bft) 97,87 %
22.03.2021 19:56 7,0 C 6,1 C 3,9 C 80 % 1026,2 hPa 0,0 l/m 0 min 0 min 0 W/m 0,0 km/h (0 Bft) 96,61 %
22.03.2021 19:58 7,0 C 6,1 C 3,9 C 80 % 1026,3 hPa 0,0 l/m 0 min 0 min 0 W/m 0,0 km/h (0 Bft) 97,83 %
22.03.2021 20:00 7,0 C 6,1 C 3,9 C 80 % 1026,3 hPa 0,0 l/m 0 min 0 min 0 W/m 3,2 km/h (1 Bft) 100,00 %
22.03.2021 20:02 7,0 C 6,1 C 3,9 C 80 % 1026,3 hPa 0,0 l/m 0 min 0 min 0 W/m 0,0 km/h (0 Bft) 100,00 %
22.03.2021 20:04 7,0 C 6,1 C 3,9 C 80 % 1026,3 hPa 0,0 l/m 0 min 0 min 0 W/m 0,0 km/h (0 Bft) 100,00 %
22.03.2021 20:06 7,0 C 6,1 C 3,9 C 80 % 1026,3 hPa 0,0 l/m 0 min 0 min 0 W/m 3,2 km/h (1 Bft) 97,92 %
22.03.2021 20:08 6,9 C 6,1 C 3,9 C 80 % 1026,3 hPa 0,0 l/m 0 min 0 min 0 W/m 0,0 km/h (0 Bft) 100,00 %
22.03.2021 20:10 6,9 C 6,1 C 3,9 C 80 % 1026,3 hPa 0,0 l/m 0 min 0 min 0 W/m 0,0 km/h (0 Bft) 100,00 %
22.03.2021 20:12 6,9 C 6,1 C 3,9 C 80 % 1026,3 hPa 0,0 l/m 0 min 0 min 0 W/m 0,0 km/h (0 Bft) 100,00 %
22.03.2021 20:14 6,9 C 6,1 C 3,9 C 80 % 1026,3 hPa 0,0 l/m 0 min 0 min 0 W/m 0,0 km/h (0 Bft) 100,00 %
22.03.2021 20:16 6,9 C 6,1 C 3,9 C 80 % 1026,3 hPa 0,0 l/m 0 min 0 min 0 W/m 0,0 km/h (0 Bft) 97,87 %
22.03.2021 20:18 6,9 C 6,1 C 3,9 C 80 % 1026,2 hPa 0,0 l/m 0 min 0 min 0 W/m 0,0 km/h (0 Bft) 100,00 %
22.03.2021 20:20 6,9 C 6,1 C 3,9 C 80 % 1026,2 hPa 0,0 l/m 0 min 0 min 0 W/m 0,0 km/h (0 Bft) 100,00 %
22.03.2021 20:22 6,9 C 6,1 C 3,9 C 80 % 1026,3 hPa 0,0 l/m 0 min 0 min 0 W/m 0,0 km/h (0 Bft) 100,00 %
22.03.2021 20:24 6,9 C 6,1 C 3,9 C 80 % 1026,3 hPa 0,0 l/m 0 min 0 min 0 W/m 0,0 km/h (0 Bft) 100,00 %
22.03.2021 20:26 6,9 C 6,1 C 3,9 C 80 % 1026,2 hPa 0,0 l/m 0 min 0 min 0 W/m 0,0 km/h (0 Bft) 100,00 %
22.03.2021 20:28 6,9 C 6,1 C 3,9 C 80 % 1026,2 hPa 0,0 l/m 0 min 0 min 0 W/m 0,0 km/h (0 Bft) 100,00 %
22.03.2021 20:30 6,9 C 6,1 C 3,9 C 80 % 1026,2 hPa 0,0 l/m 0 min 0 min 0 W/m 0,0 km/h (0 Bft) 100,00 %
22.03.2021 20:32 6,9 C 6,1 C 3,9 C 80 % 1026,3 hPa 0,0 l/m 0 min 0 min 0 W/m 0,0 km/h (0 Bft) 100,00 %
22.03.2021 20:34 6,8 C 6,1 C 3,9 C 80 % 1026,3 hPa 0,0 l/m 0 min 0 min 0 W/m 0,0 km/h (0 Bft) 100,00 %
22.03.2021 20:36 6,8 C 6,1 C 3,9 C 80 % 1026,3 hPa 0,0 l/m 0 min 0 min 0 W/m 0,0 km/h (0 Bft) 100,00 %
22.03.2021 20:38 6,8 C 6,1 C 3,9 C 80 % 1026,3 hPa 0,0 l/m 0 min 0 min 0 W/m 0,0 km/h (0 Bft) 100,00 %
22.03.2021 20:40 6,8 C 6,1 C 3,9 C 80 % 1026,3 hPa 0,0 l/m 0 min 0 min 0 W/m 0,0 km/h (0 Bft) 100,00 %
22.03.2021 20:42 6,8 C 6,1 C 3,9 C 80 % 1026,3 hPa 0,0 l/m 0 min 0 min 0 W/m 0,0 km/h (0 Bft) 100,00 %
22.03.2021 20:44 6,8 C 6,1 C 3,9 C 80 % 1026,3 hPa 0,0 l/m 0 min 0 min 0 W/m 0,0 km/h (0 Bft) 100,00 %
22.03.2021 20:46 6,8 C 6,1 C 3,9 C 80 % 1026,4 hPa 0,0 l/m 0 min 0 min 0 W/m 0,0 km/h (0 Bft) 100,00 %
22.03.2021 20:48 6,8 C 6,1 C 3,9 C 80 % 1026,4 hPa 0,0 l/m 0 min 0 min 0 W/m 0,0 km/h (0 Bft) 100,00 %
22.03.2021 20:50 6,8 C 6,1 C 3,9 C 80 % 1026,3 hPa 0,0 l/m 0 min 0 min 0 W/m 0,0 km/h (0 Bft) 100,00 %
22.03.2021 20:52 6,8 C 6,1 C 3,9 C 80 % 1026,4 hPa 0,0 l/m 0 min 0 min 0 W/m 0,0 km/h (0 Bft) 100,00 %
22.03.2021 20:54 6,8 C 6,1 C 3,9 C 80 % 1026,4 hPa 0,0 l/m 0 min 0 min 0 W/m 0,0 km/h (0 Bft) 100,00 %
22.03.2021 20:56 6,7 C 6,1 C 3,9 C 80 % 1026,4 hPa 0,0 l/m 0 min 0 min 0 W/m 0,0 km/h (0 Bft) 100,00 %
22.03.2021 20:58 6,7 C 6,1 C 3,9 C 80 % 1026,4 hPa 0,0 l/m 0 min 0 min 0 W/m 0,0 km/h (0 Bft) 100,00 %
22.03.2021 21:00 6,7 C 6,1 C 3,9 C 80 % 1026,4 hPa 0,0 l/m 0 min 0 min 0 W/m 3,2 km/h (1 Bft) 100,00 %
22.03.2021 21:02 6,7 C 6,1 C 3,9 C 80 % 1026,4 hPa 0,0 l/m 0 min 0 min 0 W/m 3,2 km/h (1 Bft) 100,00 %
22.03.2021 21:04 6,7 C 6,1 C 3,9 C 80 % 1026,4 hPa 0,0 l/m 0 min 0 min 0 W/m 0,0 km/h (0 Bft) 100,00 %
22.03.2021 21:06 6,7 C 6,1 C 3,9 C 80 % 1026,4 hPa 0,0 l/m 0 min 0 min 0 W/m 0,0 km/h (0 Bft) 100,00 %
22.03.2021 21:08 6,7 C 6,1 C 3,9 C 80 % 1026,3 hPa 0,0 l/m 0 min 0 min 0 W/m 0,0 km/h (0 Bft) 97,87 %
22.03.2021 21:10 6,7 C 6,1 C 3,9 C 81 % 1026,4 hPa 0,0 l/m 0 min 0 min 0 W/m 0,0 km/h (0 Bft) 100,00 %
22.03.2021 21:12 6,7 C 6,1 C 3,9 C 81 % 1026,4 hPa 0,0 l/m 0 min 0 min 0 W/m 0,0 km/h (0 Bft) 100,00 %
22.03.2021 21:14 6,7 C 6,1 C 3,9 C 81 % 1026,4 hPa 0,0 l/m 0 min 0 min 0 W/m 3,2 km/h (1 Bft) 100,00 %
22.03.2021 21:16 6,7 C 6,1 C 3,9 C 81 % 1026,4 hPa 0,0 l/m 0 min 0 min 0 W/m 0,0 km/h (0 Bft) 100,00 %
22.03.2021 21:18 6,7 C 6,1 C 3,9 C 81 % 1026,4 hPa 0,0 l/m 0 min 0 min 0 W/m 0,0 km/h (0 Bft) 97,87 %
22.03.2021 21:20 6,7 C 6,1 C 3,9 C 81 % 1026,4 hPa 0,0 l/m 0 min 0 min 0 W/m 0,0 km/h (0 Bft) 95,74 %
22.03.2021 21:22 6,7 C 6,1 C 3,9 C 81 % 1026,4 hPa 0,0 l/m 0 min 0 min 0 W/m 0,0 km/h (0 Bft) 95,65 %
22.03.2021 21:24 6,7 C 6,1 C 3,4 C 81 % 1026,4 hPa 0,0 l/m 0 min 0 min 0 W/m 3,2 km/h (1 Bft) 97,92 %
22.03.2021 21:26 6,6 C 6,1 C 3,4 C 81 % 1026,4 hPa 0,0 l/m 0 min 0 min 0 W/m 0,0 km/h (0 Bft) 97,87 %
22.03.2021 21:28 6,6 C 6,1 C 3,4 C 81 % 1026,4 hPa 0,0 l/m 0 min 0 min 0 W/m 0,0 km/h (0 Bft) 97,87 %
22.03.2021 21:30 6,6 C 6,1 C 3,4 C 81 % 1026,4 hPa 0,0 l/m 0 min 0 min 0 W/m 3,2 km/h (1 Bft) 97,87 %
22.03.2021 21:32 6,6 C 6,1 C 3,9 C 81 % 1026,4 hPa 0,0 l/m 0 min 0 min 0 W/m 0,0 km/h (0 Bft) 97,87 %
22.03.2021 21:34 6,6 C 6,1 C 3,9 C 81 % 1026,4 hPa 0,0 l/m 0 min 0 min 0 W/m 0,0 km/h (0 Bft) 97,87 %
22.03.2021 21:36 6,6 C 6,1 C 3,9 C 81 % 1026,4 hPa 0,0 l/m 0 min 0 min 0 W/m 0,0 km/h (0 Bft) 97,83 %
22.03.2021 21:38 6,6 C 6,1 C 3,9 C 81 % 1026,4 hPa 0,0 l/m 0 min 0 min 0 W/m 3,2 km/h (1 Bft) 48,89 %
22.03.2021 21:40 6,6 C 6,1 C 3,4 C 81 % 1026,4 hPa 0,0 l/m 0 min 0 min 0 W/m 0,0 km/h (0 Bft) 97,87 %
22.03.2021 21:42 6,6 C 6,1 C 3,4 C 81 % 1026,3 hPa 0,0 l/m 0 min 0 min 0 W/m 3,2 km/h (1 Bft) 97,87 %
22.03.2021 21:44 6,6 C 6,1 C 3,4 C 81 % 1026,4 hPa 0,0 l/m 0 min 0 min 0 W/m 0,0 km/h (0 Bft) 95,74 %
22.03.2021 21:46 6,6 C 6,1 C 3,4 C 81 % 1026,4 hPa 0,0 l/m 0 min 0 min 0 W/m 3,2 km/h (1 Bft) 95,74 %
22.03.2021 21:48 6,6 C 6,1 C 3,4 C 81 % 1026,4 hPa 0,0 l/m 0 min 0 min 0 W/m 3,2 km/h (1 Bft) 93,48 %
22.03.2021 21:50 6,5 C 6,1 C 3,4 C 81 % 1026,4 hPa 0,0 l/m 0 min 0 min 0 W/m 3,2 km/h (1 Bft) 97,87 %
22.03.2021 21:52 6,5 C 6,1 C 3,4 C 81 % 1026,4 hPa 0,0 l/m 0 min 0 min 0 W/m 0,0 km/h (0 Bft) 93,62 %
22.03.2021 21:54 6,5 C 6,1 C 3,4 C 81 % 1026,4 hPa 0,0 l/m 0 min 0 min 0 W/m 0,0 km/h (0 Bft) 97,87 %
22.03.2021 21:56 6,5 C 6,1 C 3,4 C 81 % 1026,4 hPa 0,0 l/m 0 min 0 min 0 W/m 3,2 km/h (1 Bft) 97,87 %
22.03.2021 21:58 6,5 C 6,1 C 3,4 C 81 % 1026,4 hPa 0,0 l/m 0 min 0 min 0 W/m 3,2 km/h (1 Bft) 97,87 %
22.03.2021 22:00 6,5 C 6,1 C 3,4 C 81 % 1026,4 hPa 0,0 l/m 0 min 0 min 0 W/m 3,2 km/h (1 Bft) 95,65 %
22.03.2021 22:02 6,5 C 6,1 C 3,4 C 81 % 1026,4 hPa 0,0 l/m 0 min 0 min 0 W/m 0,0 km/h (0 Bft) 97,87 %
22.03.2021 22:04 6,5 C 6,1 C 3,4 C 81 % 1026,5 hPa 0,0 l/m 0 min 0 min 0 W/m 0,0 km/h (0 Bft) 100,00 %
22.03.2021 22:06 6,5 C 5,6 C 3,4 C 82 % 1026,4 hPa 0,0 l/m 0 min 0 min 0 W/m 3,2 km/h (1 Bft) 100,00 %
22.03.2021 22:08 6,5 C 5,6 C 3,4 C 82 % 1026,4 hPa 0,0 l/m 0 min 0 min 0 W/m 3,2 km/h (1 Bft) 97,87 %
22.03.2021 22:10 6,5 C 5,6 C 3,4 C 82 % 1026,4 hPa 0,0 l/m 0 min 0 min 0 W/m 0,0 km/h (0 Bft) 97,87 %
22.03.2021 22:12 6,5 C 5,6 C 3,4 C 82 % 1026,5 hPa 0,0 l/m 0 min 0 min 0 W/m 0,0 km/h (0 Bft) 95,65 %
22.03.2021 22:14 6,5 C 5,6 C 3,4 C 82 % 1026,4 hPa 0,0 l/m 0 min 0 min 0 W/m 0,0 km/h (0 Bft) 97,87 %
22.03.2021 22:16 6,5 C 5,6 C 3,4 C 82 % 1026,4 hPa 0,0 l/m 0 min 0 min 0 W/m 0,0 km/h (0 Bft) 97,87 %
22.03.2021 22:18 6,5 C 5,6 C 3,4 C 83 % 1026,4 hPa 0,0 l/m 0 min 0 min 0 W/m 0,0 km/h (0 Bft) 91,49 %
22.03.2021 22:20 6,5 C 5,6 C 3,4 C 83 % 1026,4 hPa 0,0 l/m 0 min 0 min 0 W/m 3,2 km/h (1 Bft) 95,74 %
22.03.2021 22:22 6,5 C 5,6 C 3,4 C 83 % 1026,5 hPa 0,0 l/m 0 min 0 min 0 W/m 0,0 km/h (0 Bft) 95,65 %
22.03.2021 22:24 6,5 C 5,6 C 3,4 C 83 % 1026,4 hPa 0,0 l/m 0 min 0 min 0 W/m 0,0 km/h (0 Bft) 95,74 %
22.03.2021 22:26 6,4 C 5,6 C 3,4 C 83 % 1026,4 hPa 0,0 l/m 0 min 0 min 0 W/m 0,0 km/h (0 Bft) 95,74 %
22.03.2021 22:28 6,4 C 5,6 C 3,4 C 83 % 1026,4 hPa 0,0 l/m 0 min 0 min 0 W/m 0,0 km/h (0 Bft) 95,74 %
22.03.2021 22:30 6,4 C 5,6 C 3,4 C 83 % 1026,4 hPa 0,0 l/m 0 min 0 min 0 W/m 0,0 km/h (0 Bft) 93,62 %
22.03.2021 22:32 6,4 C 5,6 C 3,4 C 83 % 1026,4 hPa 0,0 l/m 0 min 0 min 0 W/m 0,0 km/h (0 Bft) 95,74 %
22.03.2021 22:34 6,4 C 5,6 C 3,4 C 83 % 1026,4 hPa 0,0 l/m 0 min 0 min 0 W/m 0,0 km/h (0 Bft) 95,65 %
22.03.2021 22:36 6,4 C 5,6 C 3,4 C 83 % 1026,4 hPa 0,0 l/m 0 min 0 min 0 W/m 0,0 km/h (0 Bft) 91,49 %
22.03.2021 22:38 6,4 C 5,6 C 3,4 C 83 % 1026,4 hPa 0,0 l/m 0 min 0 min 0 W/m 3,2 km/h (1 Bft) 95,74 %
22.03.2021 22:40 6,4 C 5,6 C 3,4 C 83 % 1026,4 hPa 0,0 l/m 0 min 0 min 0 W/m 0,0 km/h (0 Bft) 95,74 %
22.03.2021 22:42 6,4 C 5,6 C 3,4 C 83 % 1026,5 hPa 0,0 l/m 0 min 0 min 0 W/m 0,0 km/h (0 Bft) 95,74 %
22.03.2021 22:44 6,4 C 5,6 C 3,4 C 83 % 1026,5 hPa 0,0 l/m 0 min 0 min 0 W/m 0,0 km/h (0 Bft) 95,74 %
22.03.2021 22:46 6,4 C 5,6 C 3,4 C 83 % 1026,5 hPa 0,0 l/m 0 min 0 min 0 W/m 0,0 km/h (0 Bft) 95,65 %
22.03.2021 22:48 6,4 C 5,6 C 3,4 C 83 % 1026,5 hPa 0,0 l/m 0 min 0 min 0 W/m 0,0 km/h (0 Bft) 95,74 %
22.03.2021 22:50 6,4 C 5,6 C 3,4 C 83 % 1026,6 hPa 0,0 l/m 0 min 0 min 0 W/m 0,0 km/h (0 Bft) 93,62 %
22.03.2021 22:52 6,4 C 5,6 C 3,4 C 83 % 1026,5 hPa 0,0 l/m 0 min 0 min 0 W/m 0,0 km/h (0 Bft) 95,56 %
22.03.2021 22:54 6,4 C 5,6 C 3,4 C 83 % 1026,5 hPa 0,0 l/m 0 min 0 min 0 W/m 0,0 km/h (0 Bft) 93,62 %
22.03.2021 22:56 6,4 C 5,6 C 3,4 C 83 % 1026,5 hPa 0,0 l/m 0 min 0 min 0 W/m 0,0 km/h (0 Bft) 93,48 %
22.03.2021 22:58 6,4 C 5,6 C 3,4 C 83 % 1026,5 hPa 0,0 l/m 0 min 0 min 0 W/m 0,0 km/h (0 Bft) 97,87 %
22.03.2021 23:00 6,4 C 5,6 C 3,4 C 83 % 1026,5 hPa 0,0 l/m 0 min 0 min 0 W/m 0,0 km/h (0 Bft) 95,74 %
22.03.2021 23:02 6,4 C 5,6 C 3,4 C 83 % 1026,5 hPa 0,0 l/m 0 min 0 min 0 W/m 0,0 km/h (0 Bft) 93,75 %
22.03.2021 23:04 6,4 C 5,6 C 3,4 C 83 % 1026,4 hPa 0,0 l/m 0 min 0 min 0 W/m 0,0 km/h (0 Bft) 95,74 %
22.03.2021 23:06 6,4 C 5,6 C 3,4 C 83 % 1026,4 hPa 0,0 l/m 0 min 0 min 0 W/m 3,2 km/h (1 Bft) 93,62 %
22.03.2021 23:08 6,4 C 5,6 C 3,4 C 84 % 1026,5 hPa 0,0 l/m 0 min 0 min 0 W/m 0,0 km/h (0 Bft) 95,65 %
22.03.2021 23:10 6,3 C 5,6 C 3,4 C 84 % 1026,4 hPa 0,0 l/m 0 min 0 min 0 W/m 0,0 km/h (0 Bft) 95,74 %
22.03.2021 23:12 6,3 C 5,6 C 3,4 C 84 % 1026,5 hPa 0,0 l/m 0 min 0 min 0 W/m 0,0 km/h (0 Bft) 97,87 %
22.03.2021 23:14 6,3 C 5,6 C 3,4 C 84 % 1026,5 hPa 0,0 l/m 0 min 0 min 0 W/m 0,0 km/h (0 Bft) 93,62 %
22.03.2021 23:16 6,3 C 5,6 C 3,4 C 84 % 1026,4 hPa 0,0 l/m 0 min 0 min 0 W/m 0,0 km/h (0 Bft) 97,87 %
22.03.2021 23:18 6,3 C 5,6 C 3,4 C 84 % 1026,4 hPa 0,0 l/m 0 min 0 min 0 W/m 0,0 km/h (0 Bft) 95,74 %
22.03.2021 23:20 6,3 C 5,6 C 3,4 C 84 % 1026,4 hPa 0,0 l/m 0 min 0 min 0 W/m 0,0 km/h (0 Bft) 97,83 %
22.03.2021 23:22 6,3 C 5,6 C 3,4 C 84 % 1026,5 hPa 0,0 l/m 0 min 0 min 0 W/m 0,0 km/h (0 Bft) 97,87 %
22.03.2021 23:24 6,3 C 5,6 C 3,4 C 84 % 1026,5 hPa 0,0 l/m 0 min 0 min 0 W/m 3,2 km/h (1 Bft) 95,74 %
22.03.2021 23:26 6,3 C 5,6 C 3,4 C 84 % 1026,5 hPa 0,0 l/m 0 min 0 min 0 W/m 0,0 km/h (0 Bft) 93,62 %
22.03.2021 23:28 6,3 C 5,6 C 3,4 C 84 % 1026,5 hPa 0,0 l/m 0 min 0 min 0 W/m 0,0 km/h (0 Bft) 93,62 %
22.03.2021 23:30 6,3 C 5,6 C 3,4 C 84 % 1026,4 hPa 0,0 l/m 0 min 0 min 0 W/m 0,0 km/h (0 Bft) 95,74 %
22.03.2021 23:32 6,3 C 5,6 C 3,4 C 84 % 1026,4 hPa 0,0 l/m 0 min 0 min 0 W/m 0,0 km/h (0 Bft) 95,65 %
22.03.2021 23:34 6,3 C 5,6 C 3,4 C 84 % 1026,4 hPa 0,0 l/m 0 min 0 min 0 W/m 0,0 km/h (0 Bft) 97,87 %
22.03.2021 23:36 6,3 C 5,6 C 3,4 C 84 % 1026,4 hPa 0,0 l/m 0 min 0 min 0 W/m 0,0 km/h (0 Bft) 95,74 %
22.03.2021 23:38 6,3 C 5,6 C 3,4 C 84 % 1026,4 hPa 0,0 l/m 0 min 0 min 0 W/m 0,0 km/h (0 Bft) 100,00 %
22.03.2021 23:40 6,3 C 5,6 C 3,4 C 84 % 1026,4 hPa 0,0 l/m 0 min 0 min 0 W/m 0,0 km/h (0 Bft) 97,87 %
22.03.2021 23:42 6,3 C 5,6 C 3,4 C 84 % 1026,4 hPa 0,0 l/m 0 min 0 min 0 W/m 0,0 km/h (0 Bft) 97,87 %
22.03.2021 23:44 6,2 C 5,6 C 3,4 C 84 % 1026,3 hPa 0,0 l/m 0 min 0 min 0 W/m 0,0 km/h (0 Bft) 95,65 %
22.03.2021 23:46 6,2 C 5,6 C 3,4 C 84 % 1026,4 hPa 0,0 l/m 0 min 0 min 0 W/m 0,0 km/h (0 Bft) 97,87 %
22.03.2021 23:48 6,2 C 5,6 C 3,4 C 84 % 1026,4 hPa 0,0 l/m 0 min 0 min 0 W/m 0,0 km/h (0 Bft) 97,87 %
22.03.2021 23:50 6,2 C 5,6 C 3,4 C 84 % 1026,3 hPa 0,0 l/m 0 min 0 min 0 W/m 0,0 km/h (0 Bft) 97,87 %
22.03.2021 23:52 6,2 C 5,6 C 3,4 C 84 % 1026,4 hPa 0,0 l/m 0 min 0 min 0 W/m 0,0 km/h (0 Bft) 97,87 %
22.03.2021 23:54 6,2 C 5,6 C 3,4 C 84 % 1026,4 hPa 0,0 l/m 0 min 0 min 0 W/m 0,0 km/h (0 Bft) 91,30 %
22.03.2021 23:56 6,2 C 5,6 C 3,4 C 84 % 1026,4 hPa 0,0 l/m 0 min 0 min 0 W/m 0,0 km/h (0 Bft) 97,87 %
22.03.2021 23:58 6,2 C 5,6 C 3,4 C 84 % 1026,4 hPa 0,0 l/m 0 min 0 min 0 W/m 0,0 km/h (0 Bft) 97,87 %
_ Min-Zeit 05:00 04:24 02:58 10:54 03:50 - - - - 01:42 21:38
Minimum _ 2,9 C 2,2 C 0,6 C 76 % 1023,9 hPa - - - - 0,0 km/h (0 Bft) 48,89 %
_ Max-Zeit 10:38 10:36 10:34 06:20 22:50 00:00 08:34 00:00 10:34 09:34 00:34
Maximum _ 8,5 C 13,3 C 12,3 C 96 % 1026,6 hPa 0,0 l/m 2 min 0 min 687 W/m 32,2 km/h
NO (5 Bft)
100,00 %
Durchschnitt _ 6,0 C 5,9 C 3,8 C 84 % 1025,1 hPa #0,0 l/m #1:48 h #0 min. 149 W/m 9,0 km/h (2 Bft) 97,22 %
© 2021 W. Hausmann